Wetterdaten: aktuell Montag, 27.09.2021 22:12
Datum Zeit Temp. Aussen Temp. o. S. Temp +5cm Feuchte Auss Luftdruck Regen Sonnenschein Regendauer Solar Windben Empfang
27.09.2021 22:12 13,6 C 12,2 C 12,3 C 96 % 1019,9 hPa 0,0 l/m 0 min 0 min 0 W/m 3,2 km/h (1 Bft) 95,74 %
27.09.2021 22:10 13,6 C 12,8 C 12,3 C 96 % 1019,7 hPa 0,0 l/m 0 min 0 min 0 W/m 3,2 km/h (1 Bft) 97,83 %
27.09.2021 22:08 13,6 C 12,8 C 12,3 C 96 % 1019,8 hPa 0,0 l/m 0 min 0 min 0 W/m 3,2 km/h (1 Bft) 97,87 %
27.09.2021 22:06 13,7 C 12,8 C 12,3 C 96 % 1019,7 hPa 0,0 l/m 0 min 0 min 0 W/m 3,2 km/h (1 Bft) 97,87 %
27.09.2021 22:04 13,7 C 12,8 C 12,3 C 96 % 1019,7 hPa 0,0 l/m 0 min 0 min 0 W/m 6,4 km/h (2 Bft) 97,87 %
27.09.2021 22:02 13,7 C 12,8 C 12,3 C 96 % 1019,6 hPa 0,0 l/m 0 min 0 min 0 W/m 3,2 km/h (1 Bft) 91,49 %
27.09.2021 22:00 13,8 C 12,8 C 12,3 C 96 % 1019,6 hPa 0,0 l/m 0 min 0 min 0 W/m 3,2 km/h (1 Bft) 97,87 %
27.09.2021 21:58 13,8 C 12,8 C 12,3 C 96 % 1019,5 hPa 0,0 l/m 0 min 0 min 0 W/m 6,4 km/h (2 Bft) 97,83 %
27.09.2021 21:56 13,8 C 12,8 C 12,3 C 96 % 1019,5 hPa 0,0 l/m 0 min 0 min 0 W/m 3,2 km/h (1 Bft) 95,74 %
27.09.2021 21:54 13,9 C 12,8 C 12,3 C 96 % 1019,4 hPa 0,0 l/m 0 min 0 min 0 W/m 0,0 km/h (0 Bft) 95,74 %
27.09.2021 21:52 13,9 C 12,8 C 12,3 C 96 % 1019,4 hPa 0,0 l/m 0 min 0 min 0 W/m 3,2 km/h (1 Bft) 95,74 %
27.09.2021 21:50 13,9 C 12,8 C 12,3 C 96 % 1019,4 hPa 0,0 l/m 0 min 0 min 0 W/m 3,2 km/h (1 Bft) 95,74 %
27.09.2021 21:48 13,9 C 12,8 C 12,3 C 96 % 1019,3 hPa 0,0 l/m 0 min 0 min 0 W/m 3,2 km/h (1 Bft) 93,62 %
27.09.2021 21:46 13,9 C 12,8 C 12,3 C 96 % 1019,3 hPa 0,0 l/m 0 min 0 min 0 W/m 3,2 km/h (1 Bft) 93,75 %
27.09.2021 21:44 14,0 C 12,8 C 12,3 C 96 % 1019,3 hPa 0,0 l/m 0 min 0 min 0 W/m 3,2 km/h (1 Bft) 97,87 %
27.09.2021 21:42 14,0 C 12,8 C 12,3 C 96 % 1019,3 hPa 0,0 l/m 0 min 0 min 0 W/m 6,4 km/h (2 Bft) 97,87 %
27.09.2021 21:40 14,0 C 12,8 C 12,3 C 96 % 1019,2 hPa 0,0 l/m 0 min 0 min 0 W/m 3,2 km/h (1 Bft) 95,65 %
27.09.2021 21:38 14,0 C 12,8 C 12,3 C 96 % 1019,2 hPa 0,0 l/m 0 min 0 min 0 W/m 6,4 km/h (2 Bft) 97,87 %
27.09.2021 21:36 14,0 C 12,8 C 12,3 C 96 % 1019,1 hPa 0,0 l/m 0 min 0 min 0 W/m 6,4 km/h (2 Bft) 95,74 %
27.09.2021 21:34 14,0 C 12,8 C 12,3 C 96 % 1019,0 hPa 0,0 l/m 0 min 0 min 0 W/m 6,4 km/h (2 Bft) 97,87 %
27.09.2021 21:32 14,1 C 12,8 C 12,3 C 96 % 1019,0 hPa 0,0 l/m 0 min 0 min 0 W/m 6,4 km/h (2 Bft) 97,87 %
27.09.2021 21:30 14,2 C 13,3 C 12,3 C 96 % 1019,0 hPa 0,0 l/m 0 min 0 min 0 W/m 3,2 km/h (1 Bft) 95,74 %
27.09.2021 21:28 14,2 C 13,3 C 12,3 C 96 % 1018,9 hPa 0,0 l/m 0 min 0 min 0 W/m 6,4 km/h (2 Bft) 97,83 %
27.09.2021 21:26 14,2 C 13,3 C 12,3 C 96 % 1018,9 hPa 0,0 l/m 0 min 0 min 0 W/m 3,2 km/h (1 Bft) 97,87 %
27.09.2021 21:24 14,2 C 13,3 C 12,3 C 95 % 1019,0 hPa 0,0 l/m 0 min 0 min 0 W/m 6,4 km/h (2 Bft) 97,87 %
27.09.2021 21:22 14,2 C 13,3 C 12,3 C 95 % 1018,9 hPa 0,0 l/m 0 min 0 min 0 W/m 6,4 km/h (2 Bft) 97,87 %
27.09.2021 21:20 14,2 C 13,3 C 12,3 C 95 % 1018,9 hPa 0,0 l/m 0 min 0 min 0 W/m 6,4 km/h (2 Bft) 100,00 %
27.09.2021 21:18 14,2 C 13,3 C 12,3 C 95 % 1018,8 hPa 0,0 l/m 0 min 0 min 0 W/m 6,4 km/h (2 Bft) 97,83 %
27.09.2021 21:16 14,2 C 13,3 C 12,3 C 95 % 1018,8 hPa 0,0 l/m 0 min 0 min 0 W/m 3,2 km/h (1 Bft) 97,87 %
27.09.2021 21:14 14,2 C 13,3 C 12,3 C 95 % 1018,8 hPa 0,0 l/m 0 min 0 min 0 W/m 3,2 km/h (1 Bft) 97,87 %
27.09.2021 21:12 14,2 C 13,3 C 12,8 C 95 % 1018,7 hPa 0,0 l/m 0 min 0 min 0 W/m 3,2 km/h (1 Bft) 97,87 %
27.09.2021 21:10 14,2 C 13,3 C 12,8 C 95 % 1018,7 hPa 0,0 l/m 0 min 0 min 0 W/m 3,2 km/h (1 Bft) 97,87 %
27.09.2021 21:08 14,3 C 13,3 C 12,8 C 95 % 1018,7 hPa 0,0 l/m 0 min 0 min 0 W/m 6,4 km/h (2 Bft) 95,74 %
27.09.2021 21:06 14,3 C 13,3 C 12,8 C 95 % 1018,6 hPa 0,0 l/m 0 min 0 min 0 W/m 6,4 km/h (2 Bft) 97,83 %
27.09.2021 21:04 14,3 C 13,3 C 12,8 C 95 % 1018,5 hPa 0,0 l/m 0 min 0 min 0 W/m 3,2 km/h (1 Bft) 97,87 %
27.09.2021 21:02 14,3 C 13,3 C 12,8 C 95 % 1018,5 hPa 0,0 l/m 0 min 0 min 0 W/m 3,2 km/h (1 Bft) 95,92 %
27.09.2021 21:00 14,3 C 13,3 C 12,8 C 95 % 1018,4 hPa 0,0 l/m 0 min 0 min 0 W/m 9,7 km/h (2 Bft) 97,78 %
27.09.2021 20:58 14,3 C 13,3 C 12,8 C 95 % 1018,4 hPa 0,0 l/m 0 min 0 min 0 W/m 3,2 km/h (1 Bft) 97,87 %
27.09.2021 20:56 14,3 C 13,3 C 12,8 C 95 % 1018,4 hPa 0,0 l/m 0 min 0 min 0 W/m 3,2 km/h (1 Bft) 97,87 %
27.09.2021 20:54 14,4 C 13,3 C 12,8 C 95 % 1018,4 hPa 0,0 l/m 0 min 0 min 0 W/m 3,2 km/h (1 Bft) 97,87 %
27.09.2021 20:52 14,4 C 13,3 C 12,8 C 95 % 1018,3 hPa 0,0 l/m 0 min 0 min 0 W/m 6,4 km/h (2 Bft) 97,83 %
27.09.2021 20:50 14,5 C 13,3 C 12,8 C 95 % 1018,2 hPa 0,0 l/m 0 min 0 min 0 W/m 6,4 km/h (2 Bft) 97,87 %
27.09.2021 20:48 14,5 C 13,3 C 12,8 C 95 % 1018,2 hPa 0,0 l/m 0 min 0 min 0 W/m 3,2 km/h (1 Bft) 95,74 %
27.09.2021 20:46 14,5 C 13,3 C 12,8 C 95 % 1018,2 hPa 0,0 l/m 0 min 0 min 0 W/m 3,2 km/h (1 Bft) 95,74 %
27.09.2021 20:44 14,5 C 13,3 C 12,8 C 95 % 1018,2 hPa 0,0 l/m 0 min 0 min 0 W/m 3,2 km/h (1 Bft) 97,87 %
27.09.2021 20:42 14,5 C 13,3 C 12,8 C 95 % 1018,2 hPa 0,0 l/m 0 min 0 min 0 W/m 3,2 km/h (1 Bft) 97,83 %
27.09.2021 20:40 14,5 C 13,3 C 12,8 C 95 % 1018,1 hPa 0,0 l/m 0 min 0 min 0 W/m 3,2 km/h (1 Bft) 97,87 %
27.09.2021 20:38 14,6 C 13,3 C 12,8 C 95 % 1018,0 hPa 0,0 l/m 0 min 0 min 0 W/m 3,2 km/h (1 Bft) 97,87 %
27.09.2021 20:36 14,6 C 13,9 C 12,8 C 95 % 1017,9 hPa 0,0 l/m 0 min 0 min 0 W/m 0,0 km/h (0 Bft) 97,87 %
27.09.2021 20:34 14,5 C 13,9 C 12,8 C 95 % 1017,9 hPa 0,0 l/m 0 min 0 min 0 W/m 3,2 km/h (1 Bft) 97,87 %
27.09.2021 20:32 14,5 C 13,9 C 12,8 C 95 % 1018,0 hPa 0,0 l/m 0 min 0 min 0 W/m 3,2 km/h (1 Bft) 97,87 %
27.09.2021 20:30 14,5 C 13,9 C 12,8 C 95 % 1017,9 hPa 0,0 l/m 0 min 0 min 0 W/m 3,2 km/h (1 Bft) 97,83 %
27.09.2021 20:28 14,5 C 13,9 C 12,8 C 95 % 1017,8 hPa 0,0 l/m 0 min 0 min 0 W/m 3,2 km/h (1 Bft) 97,87 %
27.09.2021 20:26 14,4 C 13,3 C 12,8 C 95 % 1017,7 hPa 0,0 l/m 0 min 0 min 0 W/m 0,0 km/h (0 Bft) 100,00 %
27.09.2021 20:24 14,5 C 13,3 C 12,8 C 95 % 1017,6 hPa 0,0 l/m 0 min 0 min 0 W/m 6,4 km/h (2 Bft) 100,00 %
27.09.2021 20:22 14,4 C 13,3 C 12,8 C 95 % 1017,7 hPa 0,0 l/m 0 min 0 min 0 W/m 3,2 km/h (1 Bft) 100,00 %
27.09.2021 20:20 14,4 C 13,3 C 12,8 C 95 % 1017,7 hPa 0,0 l/m 0 min 0 min 0 W/m 6,4 km/h (2 Bft) 100,00 %
27.09.2021 20:18 14,5 C 13,3 C 12,8 C 95 % 1017,6 hPa 0,0 l/m 0 min 0 min 0 W/m 6,4 km/h (2 Bft) 100,00 %
27.09.2021 20:16 14,5 C 13,3 C 12,8 C 95 % 1017,5 hPa 0,0 l/m 0 min 0 min 0 W/m 6,4 km/h (2 Bft) 100,00 %
27.09.2021 20:14 14,5 C 13,3 C 12,8 C 95 % 1017,5 hPa 0,0 l/m 0 min 0 min 0 W/m 3,2 km/h (1 Bft) 100,00 %
27.09.2021 20:12 14,5 C 13,3 C 12,8 C 95 % 1017,6 hPa 0,0 l/m 0 min 0 min 0 W/m 3,2 km/h (1 Bft) 100,00 %
27.09.2021 20:10 14,5 C 13,3 C 12,8 C 94 % 1017,5 hPa 0,0 l/m 0 min 0 min 0 W/m 3,2 km/h (1 Bft) 97,87 %
27.09.2021 20:08 14,5 C 13,3 C 12,8 C 94 % 1017,4 hPa 0,0 l/m 0 min 2 min 0 W/m 0,0 km/h (0 Bft) 100,00 %
27.09.2021 20:06 14,5 C 13,9 C 12,8 C 94 % 1017,4 hPa 0,0 l/m 0 min 2 min 0 W/m 6,4 km/h (2 Bft) 95,65 %
27.09.2021 20:04 14,5 C 13,9 C 12,8 C 94 % 1017,3 hPa 0,0 l/m 0 min 2 min 0 W/m 6,4 km/h (2 Bft) 97,87 %
27.09.2021 20:02 14,5 C 13,9 C 12,8 C 94 % 1017,4 hPa 0,0 l/m 0 min 2 min 0 W/m 3,2 km/h (1 Bft) 93,75 %
27.09.2021 20:00 14,5 C 13,9 C 12,8 C 94 % 1017,5 hPa 0,0 l/m 0 min 2 min 0 W/m 0,0 km/h (0 Bft) 97,87 %
27.09.2021 19:58 14,5 C 13,9 C 12,8 C 94 % 1017,4 hPa 0,0 l/m 0 min 2 min 0 W/m 0,0 km/h (0 Bft) 97,87 %
27.09.2021 19:56 14,5 C 13,9 C 12,8 C 94 % 1017,3 hPa 0,2 l/m 0 min 2 min 0 W/m 3,2 km/h (1 Bft) 97,87 %
27.09.2021 19:54 14,5 C 13,9 C 12,8 C 94 % 1017,3 hPa 0,0 l/m 0 min 2 min 0 W/m 3,2 km/h (1 Bft) 95,65 %
27.09.2021 19:52 14,5 C 13,9 C 12,8 C 94 % 1017,2 hPa 0,0 l/m 0 min 2 min 0 W/m 6,4 km/h (2 Bft) 95,74 %
27.09.2021 19:50 14,5 C 13,9 C 12,8 C 94 % 1017,3 hPa 0,0 l/m 0 min 2 min 0 W/m 3,2 km/h (1 Bft) 95,74 %
27.09.2021 19:48 14,5 C 13,9 C 12,8 C 94 % 1017,2 hPa 0,0 l/m 0 min 0 min 0 W/m 6,4 km/h (2 Bft) 97,87 %
27.09.2021 19:46 14,5 C 13,9 C 12,8 C 94 % 1017,2 hPa 0,0 l/m 0 min 0 min 0 W/m 3,2 km/h (1 Bft) 93,62 %
27.09.2021 19:44 14,5 C 13,9 C 12,8 C 94 % 1017,2 hPa 0,0 l/m 0 min 0 min 0 W/m 6,4 km/h (2 Bft) 95,65 %
27.09.2021 19:42 14,6 C 13,9 C 12,8 C 94 % 1017,2 hPa 0,0 l/m 0 min 0 min 0 W/m 3,2 km/h (1 Bft) 95,74 %
27.09.2021 19:40 14,6 C 13,9 C 12,8 C 94 % 1017,2 hPa 0,0 l/m 0 min 0 min 0 W/m 6,4 km/h (2 Bft) 95,74 %
27.09.2021 19:38 14,5 C 13,9 C 12,8 C 94 % 1017,2 hPa 0,0 l/m 0 min 0 min 0 W/m 6,4 km/h (2 Bft) 95,74 %
27.09.2021 19:36 14,5 C 13,9 C 12,8 C 94 % 1017,1 hPa 0,0 l/m 0 min 0 min 0 W/m 3,2 km/h (1 Bft) 95,74 %
27.09.2021 19:34 14,5 C 13,3 C 12,8 C 94 % 1017,1 hPa 0,0 l/m 0 min 0 min 0 W/m 3,2 km/h (1 Bft) 97,87 %
27.09.2021 19:32 14,5 C 13,9 C 12,3 C 94 % 1017,0 hPa 0,0 l/m 0 min 0 min 0 W/m 3,2 km/h (1 Bft) 97,92 %
27.09.2021 19:30 14,5 C 13,3 C 12,3 C 94 % 1017,0 hPa 0,0 l/m 0 min 0 min 0 W/m 3,2 km/h (1 Bft) 97,83 %
27.09.2021 19:28 14,5 C 13,3 C 12,3 C 94 % 1017,0 hPa 0,0 l/m 0 min 0 min 0 W/m 6,4 km/h (2 Bft) 95,74 %
27.09.2021 19:26 14,4 C 13,3 C 12,3 C 94 % 1017,0 hPa 0,0 l/m 0 min 0 min 0 W/m 6,4 km/h (2 Bft) 97,87 %
27.09.2021 19:24 14,4 C 13,3 C 12,3 C 93 % 1017,0 hPa 0,0 l/m 0 min 0 min 0 W/m 3,2 km/h (1 Bft) 95,74 %
27.09.2021 19:22 14,4 C 13,3 C 12,3 C 93 % 1016,9 hPa 0,0 l/m 0 min 0 min 0 W/m 6,4 km/h (2 Bft) 97,87 %
27.09.2021 19:20 14,4 C 13,9 C 12,3 C 93 % 1016,9 hPa 0,0 l/m 0 min 2 min 3 W/m 3,2 km/h (1 Bft) 97,83 %
27.09.2021 19:18 14,4 C 13,9 C 12,3 C 93 % 1017,0 hPa 0,0 l/m 0 min 0 min 5 W/m 6,4 km/h (2 Bft) 97,87 %
27.09.2021 19:16 14,4 C 13,9 C 12,3 C 94 % 1017,0 hPa 0,0 l/m 0 min 2 min 7 W/m 6,4 km/h (2 Bft) 97,87 %
27.09.2021 19:14 14,5 C 13,9 C 12,3 C 94 % 1017,0 hPa 0,0 l/m 0 min 2 min 8 W/m 3,2 km/h (1 Bft) 97,87 %
27.09.2021 19:12 14,5 C 13,9 C 12,3 C 94 % 1017,0 hPa 0,0 l/m 0 min 2 min 7 W/m 12,9 km/h (3 Bft) 95,74 %
27.09.2021 19:10 14,5 C 13,9 C 12,3 C 94 % 1016,9 hPa 0,0 l/m 0 min 2 min 3 W/m 6,4 km/h (2 Bft) 97,87 %
27.09.2021 19:08 14,5 C 13,9 C 12,3 C 94 % 1016,7 hPa 0,0 l/m 0 min 2 min 0 W/m 6,4 km/h (2 Bft) 100,00 %
27.09.2021 19:06 14,5 C 13,9 C 12,3 C 94 % 1016,6 hPa 0,0 l/m 0 min 0 min 0 W/m 12,9 km/h (3 Bft) 97,87 %
27.09.2021 19:04 14,6 C 13,9 C 12,3 C 94 % 1016,5 hPa 0,0 l/m 0 min 2 min 0 W/m 9,7 km/h (2 Bft) 97,87 %
27.09.2021 19:02 14,6 C 13,9 C 12,3 C 94 % 1016,5 hPa 0,0 l/m 0 min 0 min 0 W/m 12,9 km/h (3 Bft) 95,83 %
27.09.2021 19:00 14,6 C 13,9 C 12,3 C 94 % 1016,5 hPa 0,0 l/m 0 min 0 min 2 W/m 16,1 km/h (3 Bft) 97,87 %
27.09.2021 18:58 14,7 C 13,9 C 12,8 C 94 % 1016,3 hPa 0,0 l/m 0 min 0 min 5 W/m 9,7 km/h (2 Bft) 97,87 %
27.09.2021 18:56 14,7 C 13,9 C 12,8 C 94 % 1016,2 hPa 0,0 l/m 0 min 0 min 5 W/m 12,9 km/h (3 Bft) 97,83 %
27.09.2021 18:54 14,6 C 13,9 C 12,8 C 94 % 1016,1 hPa 0,0 l/m 0 min 0 min 6 W/m 12,9 km/h (3 Bft) 97,87 %
27.09.2021 18:52 14,6 C 13,9 C 12,8 C 94 % 1016,1 hPa 0,0 l/m 0 min 0 min 10 W/m 6,4 km/h (2 Bft) 95,74 %
27.09.2021 18:50 14,6 C 13,9 C 12,8 C 94 % 1016,1 hPa 0,0 l/m 0 min 0 min 15 W/m 6,4 km/h (2 Bft) 100,00 %
27.09.2021 18:48 14,5 C 13,9 C 12,8 C 94 % 1016,1 hPa 0,0 l/m 0 min 0 min 16 W/m 9,7 km/h (2 Bft) 100,00 %
27.09.2021 18:46 14,5 C 13,3 C 12,3 C 94 % 1016,0 hPa 0,0 l/m 0 min 2 min 16 W/m 3,2 km/h (1 Bft) 100,00 %
27.09.2021 18:44 14,5 C 13,3 C 12,3 C 94 % 1016,1 hPa 0,0 l/m 0 min 2 min 14 W/m 16,1 km/h (3 Bft) 97,83 %
27.09.2021 18:42 14,4 C 13,3 C 12,3 C 93 % 1015,9 hPa 0,0 l/m 0 min 2 min 18 W/m 9,7 km/h (2 Bft) 97,87 %
27.09.2021 18:40 14,3 C 13,3 C 12,3 C 93 % 1015,8 hPa 0,0 l/m 0 min 2 min 30 W/m 12,9 km/h (3 Bft) 100,00 %
27.09.2021 18:38 14,2 C 13,3 C 12,3 C 93 % 1015,8 hPa 0,2 l/m 0 min 2 min 31 W/m 6,4 km/h (2 Bft) 100,00 %
27.09.2021 18:36 14,2 C 13,3 C 11,7 C 93 % 1015,8 hPa 0,0 l/m 0 min 2 min 21 W/m 6,4 km/h (2 Bft) 97,87 %
27.09.2021 18:34 14,2 C 13,3 C 11,7 C 93 % 1015,7 hPa 0,0 l/m 0 min 2 min 14 W/m 19,3 km/h (3 Bft) 97,87 %
27.09.2021 18:32 14,2 C 13,3 C 11,7 C 94 % 1015,8 hPa 0,0 l/m 0 min 2 min 12 W/m 22,5 km/h (4 Bft) 100,00 %
27.09.2021 18:30 14,2 C 13,3 C 11,7 C 94 % 1015,8 hPa 0,0 l/m 0 min 2 min 13 W/m 12,9 km/h (3 Bft) 100,00 %
27.09.2021 18:28 14,2 C 13,3 C 12,3 C 93 % 1015,9 hPa 0,0 l/m 0 min 2 min 12 W/m 16,1 km/h (3 Bft) 95,74 %
27.09.2021 18:26 14,2 C 13,3 C 12,3 C 93 % 1016,1 hPa 0,2 l/m 0 min 2 min 13 W/m 16,1 km/h (3 Bft) 100,00 %
27.09.2021 18:24 14,2 C 12,8 C 12,3 C 93 % 1015,7 hPa 0,0 l/m 0 min 2 min 14 W/m 6,4 km/h (2 Bft) 100,00 %
27.09.2021 18:22 14,4 C 12,8 C 12,3 C 93 % 1015,7 hPa 0,0 l/m 0 min 0 min 13 W/m 16,1 km/h (3 Bft) 100,00 %
27.09.2021 18:20 14,5 C 12,8 C 12,3 C 92 % 1015,7 hPa 0,2 l/m 0 min 0 min 12 W/m 19,3 km/h (3 Bft) 100,00 %
27.09.2021 18:18 14,7 C 12,8 C 11,7 C 91 % 1015,7 hPa 0,0 l/m 0 min 2 min 9 W/m 16,1 km/h (3 Bft) 97,87 %
27.09.2021 18:16 14,9 C 12,8 C 11,7 C 91 % 1015,8 hPa 0,0 l/m 0 min 2 min 9 W/m 16,1 km/h (3 Bft) 97,87 %
27.09.2021 18:14 15,4 C 12,8 C 12,3 C 90 % 1015,9 hPa 0,8 l/m 0 min 2 min 7 W/m 16,1 km/h (3 Bft) 97,87 %
27.09.2021 18:12 16,1 C 13,3 C 12,3 C 90 % 1015,9 hPa 1,8 l/m 0 min 2 min 3 W/m 38,6 km/h (5 Bft) 91,49 %
27.09.2021 18:10 17,1 C 14,4 C 13,9 C 92 % 1015,6 hPa 1,6 l/m 0 min 2 min 0 W/m 48,3 km/h (6 Bft) 89,36 %
27.09.2021 18:08 17,5 C 16,1 C 15,0 C 93 % 1015,0 hPa 0,2 l/m 0 min 4 min 3 W/m 19,3 km/h (3 Bft) 94,68 %
27.09.2021 18:04 17,6 C 16,1 C 14,5 C 92 % 1014,7 hPa 0,4 l/m 0 min 2 min 13 W/m 16,1 km/h (3 Bft) 95,74 %
27.09.2021 18:02 17,6 C 16,1 C 14,5 C 92 % 1014,7 hPa 0,0 l/m 0 min 2 min 18 W/m 12,9 km/h (3 Bft) 93,75 %
27.09.2021 18:00 17,6 C 16,1 C 14,5 C 92 % 1014,7 hPa 0,0 l/m 0 min 2 min 20 W/m 6,4 km/h (2 Bft) 95,74 %
27.09.2021 17:58 17,7 C 16,1 C 14,5 C 92 % 1014,7 hPa 0,0 l/m 0 min 2 min 24 W/m 9,7 km/h (2 Bft) 95,65 %
27.09.2021 17:56 17,8 C 16,1 C 14,5 C 92 % 1014,6 hPa 0,2 l/m 0 min 2 min 19 W/m 9,7 km/h (2 Bft) 93,62 %
27.09.2021 17:54 17,8 C 16,1 C 14,5 C 91 % 1014,7 hPa 0,0 l/m 0 min 2 min 12 W/m 12,9 km/h (3 Bft) 93,62 %
27.09.2021 17:52 17,8 C 16,1 C 14,5 C 91 % 1014,7 hPa 0,0 l/m 0 min 2 min 11 W/m 9,7 km/h (2 Bft) 91,49 %
27.09.2021 17:50 17,9 C 16,1 C 14,5 C 91 % 1014,7 hPa 0,2 l/m 0 min 2 min 11 W/m 6,4 km/h (2 Bft) 95,74 %
27.09.2021 17:48 17,9 C 16,1 C 14,5 C 90 % 1014,6 hPa 0,0 l/m 0 min 2 min 18 W/m 3,2 km/h (1 Bft) 97,87 %
27.09.2021 17:46 17,9 C 16,1 C 14,5 C 90 % 1014,6 hPa 0,2 l/m 0 min 2 min 23 W/m 3,2 km/h (1 Bft) 97,83 %
27.09.2021 17:44 18,0 C 16,1 C 14,5 C 90 % 1014,6 hPa 0,2 l/m 0 min 2 min 19 W/m 3,2 km/h (1 Bft) 95,74 %
27.09.2021 17:42 18,0 C 16,1 C 14,5 C 90 % 1014,6 hPa 0,0 l/m 0 min 2 min 15 W/m 3,2 km/h (1 Bft) 95,74 %
27.09.2021 17:40 18,0 C 16,1 C 14,5 C 89 % 1014,5 hPa 0,2 l/m 0 min 2 min 18 W/m 6,4 km/h (2 Bft) 97,14 %
27.09.2021 17:38 18,1 C 16,7 C 14,5 C 89 % 1014,5 hPa 0,2 l/m 0 min 2 min 19 W/m 6,4 km/h (2 Bft) 97,87 %
27.09.2021 17:36 18,1 C 16,7 C 14,5 C 89 % 1014,5 hPa 0,0 l/m 0 min 2 min 17 W/m 12,9 km/h (3 Bft) 94,92 %
27.09.2021 17:34 18,1 C 16,7 C 14,5 C 88 % 1014,5 hPa 0,0 l/m 0 min 2 min 14 W/m 12,9 km/h (3 Bft) 97,83 %
27.09.2021 17:32 18,2 C 16,7 C 14,5 C 88 % 1014,5 hPa 0,2 l/m 0 min 2 min 16 W/m 16,1 km/h (3 Bft) 97,30 %
27.09.2021 17:30 18,2 C 16,7 C 14,5 C 88 % 1014,5 hPa 0,0 l/m 0 min 2 min 20 W/m 12,9 km/h (3 Bft) 95,65 %
27.09.2021 17:28 18,2 C 17,2 C 15,0 C 87 % 1014,5 hPa 0,2 l/m 0 min 2 min 25 W/m 12,9 km/h (3 Bft) 100,00 %
27.09.2021 17:26 18,3 C 17,2 C 15,0 C 87 % 1014,4 hPa 0,0 l/m 0 min 2 min 26 W/m 12,9 km/h (3 Bft) 100,00 %
27.09.2021 17:24 18,3 C 17,2 C 15,6 C 87 % 1014,4 hPa 0,0 l/m 0 min 2 min 31 W/m 9,7 km/h (2 Bft) 100,00 %
27.09.2021 17:22 18,3 C 17,2 C 15,6 C 87 % 1014,4 hPa 0,0 l/m 0 min 2 min 36 W/m 16,1 km/h (3 Bft) 100,00 %
27.09.2021 17:20 18,4 C 17,2 C 15,6 C 86 % 1014,4 hPa 0,0 l/m 0 min 2 min 27 W/m 6,4 km/h (2 Bft) 100,00 %
27.09.2021 17:18 18,4 C 17,2 C 15,6 C 86 % 1014,3 hPa 0,0 l/m 0 min 0 min 22 W/m 6,4 km/h (2 Bft) 100,00 %
27.09.2021 17:16 18,4 C 17,2 C 16,1 C 86 % 1014,3 hPa 0,0 l/m 0 min 0 min 24 W/m 16,1 km/h (3 Bft) 100,00 %
27.09.2021 17:14 18,4 C 17,8 C 16,1 C 86 % 1014,4 hPa 0,0 l/m 0 min 0 min 28 W/m 12,9 km/h (3 Bft) 97,87 %
27.09.2021 17:12 18,5 C 17,8 C 16,1 C 86 % 1014,4 hPa 0,0 l/m 0 min 0 min 36 W/m 22,5 km/h (4 Bft) 97,87 %
27.09.2021 17:10 18,5 C 17,8 C 16,1 C 86 % 1014,3 hPa 0,0 l/m 0 min 0 min 41 W/m 12,9 km/h (3 Bft) 97,87 %
27.09.2021 17:08 18,5 C 17,8 C 16,1 C 86 % 1014,3 hPa 0,0 l/m 0 min 0 min 46 W/m 12,9 km/h (3 Bft) 95,74 %
27.09.2021 17:06 18,5 C 17,8 C 15,6 C 86 % 1014,4 hPa 0,0 l/m 0 min 0 min 50 W/m 12,9 km/h (3 Bft) 97,83 %
27.09.2021 17:04 18,6 C 17,8 C 15,6 C 86 % 1014,3 hPa 0,0 l/m 0 min 0 min 54 W/m 12,9 km/h (3 Bft) 97,87 %
27.09.2021 17:02 18,6 C 17,8 C 15,6 C 86 % 1014,3 hPa 0,0 l/m 0 min 0 min 62 W/m 16,1 km/h (3 Bft) 95,74 %
27.09.2021 17:00 18,6 C 17,8 C 15,6 C 86 % 1014,3 hPa 0,0 l/m 0 min 0 min 60 W/m 12,9 km/h (3 Bft) 97,87 %
27.09.2021 16:58 18,6 C 17,8 C 15,6 C 85 % 1014,3 hPa 0,0 l/m 0 min 0 min 50 W/m 16,1 km/h (3 Bft) 97,87 %
27.09.2021 16:56 18,7 C 17,8 C 15,6 C 85 % 1014,3 hPa 0,0 l/m 0 min 0 min 45 W/m 6,4 km/h (2 Bft) 97,87 %
27.09.2021 16:54 18,8 C 17,8 C 15,6 C 85 % 1014,4 hPa 0,0 l/m 0 min 0 min 52 W/m 16,1 km/h (3 Bft) 97,83 %
27.09.2021 16:52 18,8 C 17,8 C 15,6 C 85 % 1014,4 hPa 0,0 l/m 0 min 0 min 58 W/m 16,1 km/h (3 Bft) 97,87 %
27.09.2021 16:50 18,9 C 17,8 C 15,6 C 84 % 1014,6 hPa 0,0 l/m 0 min 0 min 57 W/m 22,5 km/h (4 Bft) 97,87 %
27.09.2021 16:48 19,0 C 17,8 C 15,6 C 84 % 1014,6 hPa 0,0 l/m 0 min 0 min 63 W/m 22,5 km/h (4 Bft) 97,87 %
27.09.2021 16:46 19,1 C 17,8 C 15,6 C 83 % 1014,6 hPa 0,0 l/m 0 min 2 min 58 W/m 32,2 km/h (5 Bft) 95,74 %
27.09.2021 16:44 19,4 C 17,8 C 15,6 C 82 % 1014,7 hPa 0,0 l/m 0 min 2 min 52 W/m 35,4 km/h (5 Bft) 97,87 %
27.09.2021 16:42 19,6 C 18,3 C 16,1 C 82 % 1014,6 hPa 0,0 l/m 0 min 2 min 53 W/m 22,5 km/h (4 Bft) 97,83 %
27.09.2021 16:40 19,8 C 18,9 C 16,1 C 81 % 1014,7 hPa 0,0 l/m 0 min 2 min 54 W/m 32,2 km/h (5 Bft) 97,87 %
27.09.2021 16:38 19,9 C 18,9 C 16,1 C 80 % 1014,5 hPa 0,0 l/m 0 min 0 min 49 W/m 32,2 km/h (5 Bft) 97,87 %
27.09.2021 16:36 20,0 C 18,9 C 16,7 C 80 % 1014,5 hPa 0,0 l/m 0 min 0 min 58 W/m 25,7 km/h (4 Bft) 95,74 %
27.09.2021 16:34 20,1 C 18,9 C 16,7 C 79 % 1014,6 hPa 0,0 l/m 0 min 0 min 83 W/m 25,7 km/h (4 Bft) 97,87 %
27.09.2021 16:32 20,2 C 19,4 C 16,7 C 79 % 1014,5 hPa 0,0 l/m 0 min 0 min 109 W/m 25,7 km/h (4 Bft) 97,87 %
27.09.2021 16:30 20,3 C 19,4 C 16,7 C 78 % 1014,4 hPa 0,0 l/m 0 min 0 min 106 W/m 35,4 km/h (5 Bft) 97,83 %
27.09.2021 16:28 20,4 C 19,4 C 17,3 C 78 % 1014,4 hPa 0,0 l/m 0 min 0 min 101 W/m 32,2 km/h (5 Bft) 95,74 %
27.09.2021 16:26 20,5 C 19,4 C 17,3 C 77 % 1014,5 hPa 0,0 l/m 0 min 0 min 86 W/m 41,8 km/h (6 Bft) 97,87 %
27.09.2021 16:24 20,5 C 19,4 C 17,3 C 76 % 1014,5 hPa 0,0 l/m 0 min 0 min 80 W/m 45,1 km/h (6 Bft) 95,74 %
27.09.2021 16:22 20,6 C 20,0 C 17,3 C 76 % 1014,4 hPa 0,0 l/m 0 min 0 min 95 W/m 35,4 km/h (5 Bft) 100,00 %
27.09.2021 16:20 20,6 C 20,0 C 17,3 C 76 % 1014,3 hPa 0,0 l/m 0 min 0 min 94 W/m 22,5 km/h (4 Bft) 100,00 %
27.09.2021 16:18 20,7 C 20,0 C 17,3 C 76 % 1014,3 hPa 0,0 l/m 0 min 0 min 95 W/m 19,3 km/h (3 Bft) 97,87 %
27.09.2021 16:16 20,8 C 20,0 C 17,3 C 75 % 1014,3 hPa 0,0 l/m 0 min 0 min 109 W/m 32,2 km/h (5 Bft) 95,74 %
27.09.2021 16:14 20,9 C 20,0 C 17,3 C 75 % 1014,3 hPa 0,0 l/m 0 min 0 min 119 W/m 29,0 km/h (5 Bft) 97,87 %
27.09.2021 16:12 20,9 C 20,0 C 17,8 C 75 % 1014,2 hPa 0,0 l/m 0 min 0 min 128 W/m 29,0 km/h (5 Bft) 97,87 %
27.09.2021 16:10 21,0 C 20,6 C 17,8 C 74 % 1014,2 hPa 0,0 l/m 0 min 0 min 134 W/m 29,0 km/h (5 Bft) 97,87 %
27.09.2021 16:08 21,0 C 20,6 C 18,4 C 74 % 1014,2 hPa 0,0 l/m 0 min 2 min 126 W/m 25,7 km/h (4 Bft) 97,83 %
27.09.2021 16:06 21,0 C 20,6 C 18,4 C 74 % 1014,1 hPa 0,0 l/m 0 min 0 min 123 W/m 19,3 km/h (3 Bft) 95,74 %
27.09.2021 16:04 21,1 C 20,6 C 18,4 C 74 % 1014,0 hPa 0,0 l/m 0 min 0 min 128 W/m 19,3 km/h (3 Bft) 97,87 %
27.09.2021 16:02 21,1 C 20,6 C 18,4 C 76 % 1014,1 hPa 0,0 l/m 0 min 0 min 131 W/m 32,2 km/h (5 Bft) 97,87 %
27.09.2021 16:00 21,1 C 20,6 C 18,4 C 76 % 1014,0 hPa 0,0 l/m 0 min 0 min 132 W/m 29,0 km/h (5 Bft) 97,87 %
27.09.2021 15:58 21,1 C 20,6 C 18,4 C 75 % 1013,9 hPa 0,0 l/m 0 min 2 min 156 W/m 9,7 km/h (2 Bft) 97,87 %
27.09.2021 15:56 21,1 C 20,6 C 18,4 C 75 % 1013,9 hPa 0,0 l/m 0 min 0 min 169 W/m 16,1 km/h (3 Bft) 97,83 %
27.09.2021 15:54 21,1 C 20,6 C 18,4 C 75 % 1013,9 hPa 0,0 l/m 0 min 0 min 169 W/m 16,1 km/h (3 Bft) 97,87 %
27.09.2021 15:52 21,1 C 20,6 C 17,8 C 75 % 1013,9 hPa 0,0 l/m 0 min 0 min 160 W/m 6,4 km/h (2 Bft) 97,87 %
27.09.2021 15:50 21,1 C 20,6 C 17,8 C 74 % 1013,9 hPa 0,0 l/m 0 min 0 min 152 W/m 16,1 km/h (3 Bft) 97,87 %
27.09.2021 15:48 21,2 C 20,6 C 17,8 C 74 % 1013,9 hPa 0,0 l/m 0 min 0 min 135 W/m 22,5 km/h (4 Bft) 97,87 %
27.09.2021 15:46 21,2 C 20,6 C 17,8 C 74 % 1013,9 hPa 0,0 l/m 0 min 0 min 116 W/m 16,1 km/h (3 Bft) 97,87 %
27.09.2021 15:44 21,3 C 20,6 C 17,8 C 74 % 1013,9 hPa 0,0 l/m 0 min 2 min 104 W/m 12,9 km/h (3 Bft) 96,30 %
27.09.2021 15:42 21,3 C 20,6 C 17,8 C 73 % 1013,8 hPa 0,0 l/m 0 min 2 min 99 W/m 12,9 km/h (3 Bft) 100,00 %
27.09.2021 15:40 21,3 C 20,6 C 17,8 C 73 % 1013,9 hPa 0,0 l/m 0 min 0 min 104 W/m 19,3 km/h (3 Bft) 100,00 %
27.09.2021 15:38 21,4 C 20,6 C 18,4 C 73 % 1013,8 hPa 0,0 l/m 0 min 0 min 103 W/m 12,9 km/h (3 Bft) 100,00 %
27.09.2021 15:36 21,4 C 20,6 C 18,9 C 73 % 1013,8 hPa 0,0 l/m 0 min 0 min 97 W/m 19,3 km/h (3 Bft) 97,87 %
27.09.2021 15:34 21,4 C 20,6 C 18,9 C 73 % 1013,7 hPa 0,0 l/m 0 min 0 min 91 W/m 19,3 km/h (3 Bft) 97,83 %
27.09.2021 15:32 21,5 C 21,1 C 18,9 C 73 % 1013,7 hPa 0,0 l/m 0 min 0 min 99 W/m 12,9 km/h (3 Bft) 100,00 %
27.09.2021 15:30 21,5 C 21,1 C 18,9 C 74 % 1013,6 hPa 0,0 l/m 0 min 0 min 126 W/m 22,5 km/h (4 Bft) 97,87 %
27.09.2021 15:28 21,5 C 21,1 C 18,9 C 74 % 1013,7 hPa 0,0 l/m 0 min 0 min 150 W/m 12,9 km/h (3 Bft) 97,87 %
27.09.2021 15:26 21,5 C 21,1 C 19,5 C 74 % 1013,7 hPa 0,0 l/m 0 min 0 min 174 W/m 12,9 km/h (3 Bft) 97,87 %
27.09.2021 15:24 21,5 C 21,1 C 18,9 C 74 % 1013,7 hPa 0,0 l/m 0 min 0 min 192 W/m 19,3 km/h (3 Bft) 97,87 %
27.09.2021 15:22 21,5 C 21,1 C 18,9 C 73 % 1013,6 hPa 0,0 l/m 0 min 0 min 199 W/m 9,7 km/h (2 Bft) 97,83 %
27.09.2021 15:20 21,4 C 21,1 C 18,9 C 73 % 1013,7 hPa 0,0 l/m 0 min 0 min 202 W/m 32,2 km/h (5 Bft) 97,87 %
27.09.2021 15:18 21,5 C 21,1 C 18,9 C 73 % 1013,6 hPa 0,0 l/m 0 min 0 min 203 W/m 29,0 km/h (5 Bft) 97,87 %
27.09.2021 15:16 21,5 C 21,1 C 18,9 C 73 % 1013,6 hPa 0,0 l/m 0 min 0 min 205 W/m 25,7 km/h (4 Bft) 95,74 %
27.09.2021 15:14 21,5 C 21,1 C 18,9 C 72 % 1013,5 hPa 0,0 l/m 0 min 0 min 200 W/m 16,1 km/h (3 Bft) 97,87 %
27.09.2021 15:12 21,5 C 21,1 C 18,9 C 73 % 1013,5 hPa 0,0 l/m 0 min 0 min 195 W/m 19,3 km/h (3 Bft) 97,87 %
27.09.2021 15:10 21,5 C 21,1 C 18,9 C 73 % 1013,4 hPa 0,0 l/m 0 min 0 min 191 W/m 16,1 km/h (3 Bft) 97,83 %
27.09.2021 15:08 21,5 C 21,1 C 18,9 C 73 % 1013,4 hPa 0,0 l/m 0 min 0 min 190 W/m 12,9 km/h (3 Bft) 97,87 %
27.09.2021 15:06 21,5 C 21,1 C 18,9 C 73 % 1013,3 hPa 0,0 l/m 0 min 0 min 195 W/m 16,1 km/h (3 Bft) 97,87 %
27.09.2021 15:04 21,5 C 21,1 C 18,9 C 73 % 1013,3 hPa 0,0 l/m 0 min 0 min 202 W/m 16,1 km/h (3 Bft) 97,87 %
27.09.2021 15:02 21,5 C 21,1 C 18,9 C 73 % 1013,3 hPa 0,0 l/m 0 min 0 min 207 W/m 16,1 km/h (3 Bft) 97,87 %
27.09.2021 15:00 21,5 C 21,1 C 18,9 C 73 % 1013,4 hPa 0,0 l/m 0 min 0 min 209 W/m 32,2 km/h (5 Bft) 95,74 %
27.09.2021 14:58 21,6 C 21,1 C 18,9 C 73 % 1013,5 hPa 0,0 l/m 0 min 0 min 213 W/m 25,7 km/h (4 Bft) 97,83 %
27.09.2021 14:56 21,6 C 21,1 C 19,5 C 73 % 1013,5 hPa 0,0 l/m 0 min 0 min 225 W/m 16,1 km/h (3 Bft) 97,87 %
27.09.2021 14:54 21,6 C 21,1 C 19,5 C 73 % 1013,4 hPa 0,0 l/m 0 min 0 min 230 W/m 12,9 km/h (3 Bft) 97,87 %
27.09.2021 14:52 21,6 C 21,1 C 19,5 C 73 % 1013,4 hPa 0,0 l/m 0 min 0 min 219 W/m 12,9 km/h (3 Bft) 97,87 %
27.09.2021 14:50 21,6 C 21,1 C 19,5 C 73 % 1013,4 hPa 0,0 l/m 0 min 0 min 215 W/m 22,5 km/h (4 Bft) 97,87 %
27.09.2021 14:48 21,6 C 21,1 C 19,5 C 73 % 1013,5 hPa 0,0 l/m 0 min 0 min 215 W/m 16,1 km/h (3 Bft) 97,87 %
27.09.2021 14:46 21,6 C 21,7 C 19,5 C 73 % 1013,4 hPa 0,0 l/m 0 min 0 min 218 W/m 19,3 km/h (3 Bft) 97,83 %
27.09.2021 14:44 21,6 C 21,7 C 19,5 C 73 % 1013,5 hPa 0,0 l/m 0 min 0 min 227 W/m 19,3 km/h (3 Bft) 100,00 %
27.09.2021 14:42 21,6 C 21,7 C 19,5 C 73 % 1013,5 hPa 0,0 l/m 0 min 0 min 238 W/m 22,5 km/h (4 Bft) 100,00 %
27.09.2021 14:40 21,5 C 21,7 C 19,5 C 73 % 1013,5 hPa 0,0 l/m 0 min 0 min 266 W/m 12,9 km/h (3 Bft) 100,00 %
27.09.2021 14:38 21,5 C 21,7 C 19,5 C 73 % 1013,5 hPa 0,0 l/m 2 min 0 min 299 W/m 16,1 km/h (3 Bft) 100,00 %
27.09.2021 14:36 21,5 C 21,7 C 19,5 C 72 % 1013,5 hPa 0,0 l/m 2 min 0 min 320 W/m 35,4 km/h (5 Bft) 100,00 %
27.09.2021 14:34 21,5 C 21,7 C 19,5 C 72 % 1013,5 hPa 0,0 l/m 2 min 0 min 328 W/m 29,0 km/h (5 Bft) 97,87 %
27.09.2021 14:32 21,4 C 21,7 C 19,5 C 73 % 1013,6 hPa 0,0 l/m 2 min 0 min 318 W/m 22,5 km/h (4 Bft) 100,00 %
27.09.2021 14:30 21,4 C 21,1 C 19,5 C 73 % 1013,6 hPa 0,0 l/m 0 min 0 min 270 W/m 29,0 km/h (5 Bft) 100,00 %
27.09.2021 14:28 21,4 C 21,1 C 19,5 C 73 % 1013,6 hPa 0,0 l/m 0 min 0 min 251 W/m 29,0 km/h (5 Bft) 97,87 %
27.09.2021 14:26 21,4 C 21,1 C 19,5 C 74 % 1013,5 hPa 0,0 l/m 0 min 0 min 256 W/m 19,3 km/h (3 Bft) 100,00 %
27.09.2021 14:24 21,4 C 21,1 C 19,5 C 74 % 1013,7 hPa 0,0 l/m 0 min 0 min 261 W/m 29,0 km/h (5 Bft) 100,00 %
27.09.2021 14:22 21,4 C 21,1 C 19,5 C 74 % 1013,7 hPa 0,0 l/m 0 min 0 min 261 W/m 19,3 km/h (3 Bft) 97,87 %
27.09.2021 14:20 21,4 C 21,1 C 19,5 C 73 % 1013,8 hPa 0,0 l/m 0 min 0 min 264 W/m 25,7 km/h (4 Bft) 100,00 %
27.09.2021 14:18 21,4 C 21,1 C 19,5 C 73 % 1013,8 hPa 0,0 l/m 0 min 0 min 256 W/m 25,7 km/h (4 Bft) 100,00 %
27.09.2021 14:16 21,4 C 21,1 C 19,5 C 74 % 1013,9 hPa 0,0 l/m 0 min 0 min 239 W/m 16,1 km/h (3 Bft) 100,00 %
27.09.2021 14:14 21,4 C 21,1 C 19,5 C 74 % 1013,9 hPa 0,0 l/m 0 min 0 min 211 W/m 32,2 km/h (5 Bft) 97,87 %
27.09.2021 14:12 21,4 C 21,1 C 19,5 C 74 % 1013,9 hPa 0,0 l/m 0 min 0 min 217 W/m 35,4 km/h (5 Bft) 95,65 %
27.09.2021 14:10 21,4 C 21,1 C 19,5 C 74 % 1013,8 hPa 0,0 l/m 0 min 0 min 224 W/m 19,3 km/h (3 Bft) 97,87 %
27.09.2021 14:08 21,4 C 21,1 C 19,5 C 74 % 1013,9 hPa 0,0 l/m 0 min 0 min 216 W/m 22,5 km/h (4 Bft) 97,87 %
27.09.2021 14:06 21,5 C 21,1 C 19,5 C 74 % 1013,9 hPa 0,0 l/m 0 min 0 min 193 W/m 29,0 km/h (5 Bft) 97,87 %
27.09.2021 14:04 21,5 C 21,1 C 19,5 C 74 % 1013,8 hPa 0,0 l/m 0 min 0 min 188 W/m 25,7 km/h (4 Bft) 95,83 %
27.09.2021 14:02 21,6 C 21,7 C 19,5 C 74 % 1013,9 hPa 0,0 l/m 0 min 0 min 186 W/m 29,0 km/h (5 Bft) 95,74 %
27.09.2021 14:00 21,6 C 21,7 C 19,5 C 74 % 1013,9 hPa 0,0 l/m 0 min 0 min 221 W/m 16,1 km/h (3 Bft) 95,65 %
27.09.2021 13:58 21,6 C 21,7 C 19,5 C 74 % 1013,7 hPa 0,0 l/m 0 min 0 min 272 W/m 16,1 km/h (3 Bft) 95,74 %
27.09.2021 13:56 21,6 C 22,2 C 20,0 C 74 % 1013,8 hPa 0,0 l/m 2 min 0 min 322 W/m 16,1 km/h (3 Bft) 93,62 %
27.09.2021 13:54 21,6 C 22,2 C 20,0 C 74 % 1013,7 hPa 0,0 l/m 2 min 0 min 420 W/m 22,5 km/h (4 Bft) 95,74 %
27.09.2021 13:52 21,5 C 22,2 C 19,5 C 74 % 1013,7 hPa 0,0 l/m 0 min 0 min 239 W/m 22,5 km/h (4 Bft) 95,74 %
27.09.2021 13:50 21,5 C 21,7 C 20,0 C 74 % 1013,7 hPa 0,0 l/m 0 min 0 min 217 W/m 25,7 km/h (4 Bft) 95,65 %
27.09.2021 13:48 21,5 C 22,2 C 20,0 C 74 % 1013,8 hPa 0,0 l/m 2 min 0 min 328 W/m 19,3 km/h (3 Bft) 95,74 %
27.09.2021 13:46 21,4 C 22,2 C 20,0 C 75 % 1013,9 hPa 0,0 l/m 2 min 0 min 498 W/m 12,9 km/h (3 Bft) 95,74 %
27.09.2021 13:44 21,3 C 22,2 C 20,0 C 75 % 1013,8 hPa 0,0 l/m 2 min 0 min 478 W/m 22,5 km/h (4 Bft) 95,74 %
27.09.2021 13:42 21,3 C 22,2 C 19,5 C 75 % 1013,7 hPa 0,0 l/m 2 min 0 min 456 W/m 25,7 km/h (4 Bft) 95,74 %
27.09.2021 13:40 21,1 C 22,2 C 19,5 C 75 % 1013,8 hPa 0,0 l/m 2 min 0 min 408 W/m 19,3 km/h (3 Bft) 95,74 %
27.09.2021 13:38 21,1 C 21,7 C 19,5 C 76 % 1013,8 hPa 0,0 l/m 2 min 0 min 393 W/m 25,7 km/h (4 Bft) 97,87 %
27.09.2021 13:36 21,0 C 21,7 C 19,5 C 77 % 1013,7 hPa 0,0 l/m 2 min 0 min 390 W/m 16,1 km/h (3 Bft) 97,83 %
27.09.2021 13:34 21,0 C 21,7 C 19,5 C 77 % 1013,9 hPa 0,0 l/m 2 min 0 min 350 W/m 22,5 km/h (4 Bft) 97,87 %
27.09.2021 13:32 20,9 C 21,1 C 18,9 C 77 % 1013,9 hPa 0,0 l/m 2 min 0 min 329 W/m 16,1 km/h (3 Bft) 95,74 %
27.09.2021 13:30 20,9 C 21,1 C 18,9 C 77 % 1013,9 hPa 0,0 l/m 2 min 0 min 306 W/m 9,7 km/h (2 Bft) 97,87 %
27.09.2021 13:28 20,8 C 20,6 C 18,9 C 77 % 1014,0 hPa 0,0 l/m 0 min 0 min 219 W/m 16,1 km/h (3 Bft) 97,87 %
27.09.2021 13:26 20,8 C 20,6 C 18,9 C 77 % 1014,0 hPa 0,0 l/m 0 min 0 min 172 W/m 22,5 km/h (4 Bft) 93,62 %
27.09.2021 13:24 20,8 C 20,6 C 18,9 C 77 % 1014,0 hPa 0,0 l/m 0 min 0 min 177 W/m 22,5 km/h (4 Bft) 97,83 %
27.09.2021 13:22 20,8 C 20,6 C 18,9 C 77 % 1014,0 hPa 0,0 l/m 0 min 0 min 162 W/m 22,5 km/h (4 Bft) 97,87 %
27.09.2021 13:20 20,8 C 20,6 C 18,9 C 77 % 1014,0 hPa 0,0 l/m 0 min 0 min 162 W/m 12,9 km/h (3 Bft) 97,87 %
27.09.2021 13:18 20,8 C 20,6 C 18,9 C 77 % 1014,0 hPa 0,0 l/m 0 min 0 min 174 W/m 22,5 km/h (4 Bft) 95,74 %
27.09.2021 13:16 20,8 C 20,6 C 18,9 C 77 % 1014,0 hPa 0,0 l/m 0 min 0 min 179 W/m 29,0 km/h (5 Bft) 97,87 %
27.09.2021 13:14 20,8 C 20,6 C 18,9 C 78 % 1014,1 hPa 0,0 l/m 0 min 0 min 177 W/m 16,1 km/h (3 Bft) 95,74 %
27.09.2021 13:12 20,7 C 20,6 C 18,9 C 78 % 1014,0 hPa 0,0 l/m 0 min 0 min 205 W/m 19,3 km/h (3 Bft) 97,83 %
27.09.2021 13:10 20,7 C 20,6 C 18,9 C 79 % 1014,0 hPa 0,0 l/m 0 min 0 min 248 W/m 19,3 km/h (3 Bft) 97,87 %
27.09.2021 13:08 20,6 C 20,6 C 18,9 C 79 % 1014,0 hPa 0,0 l/m 0 min 0 min 239 W/m 22,5 km/h (4 Bft) 97,87 %
27.09.2021 13:06 20,6 C 20,0 C 18,4 C 79 % 1014,0 hPa 0,0 l/m 0 min 0 min 189 W/m 12,9 km/h (3 Bft) 97,87 %
27.09.2021 13:04 20,6 C 20,0 C 18,4 C 79 % 1014,0 hPa 0,0 l/m 0 min 0 min 136 W/m 16,1 km/h (3 Bft) 97,92 %
27.09.2021 13:02 20,7 C 20,0 C 18,4 C 79 % 1014,1 hPa 0,0 l/m 0 min 0 min 110 W/m 16,1 km/h (3 Bft) 97,83 %
27.09.2021 13:00 20,7 C 20,0 C 18,4 C 79 % 1014,0 hPa 0,0 l/m 0 min 0 min 91 W/m 16,1 km/h (3 Bft) 100,00 %
27.09.2021 12:58 20,7 C 20,0 C 18,9 C 79 % 1014,1 hPa 0,0 l/m 0 min 0 min 100 W/m 12,9 km/h (3 Bft) 95,74 %
27.09.2021 12:56 20,7 C 20,6 C 18,9 C 79 % 1014,1 hPa 0,0 l/m 0 min 0 min 117 W/m 16,1 km/h (3 Bft) 97,87 %
27.09.2021 12:54 20,7 C 20,6 C 18,9 C 80 % 1014,1 hPa 0,0 l/m 0 min 0 min 134 W/m 19,3 km/h (3 Bft) 95,74 %
27.09.2021 12:52 20,6 C 20,6 C 18,9 C 80 % 1014,1 hPa 0,0 l/m 0 min 0 min 158 W/m 6,4 km/h (2 Bft) 97,87 %
27.09.2021 12:50 20,6 C 20,6 C 18,9 C 80 % 1014,1 hPa 0,0 l/m 0 min 0 min 202 W/m 19,3 km/h (3 Bft) 97,83 %
27.09.2021 12:48 20,5 C 20,6 C 18,9 C 80 % 1014,1 hPa 0,0 l/m 0 min 0 min 225 W/m 6,4 km/h (2 Bft) 97,87 %
27.09.2021 12:46 20,5 C 20,6 C 18,9 C 81 % 1014,1 hPa 0,0 l/m 0 min 0 min 240 W/m 19,3 km/h (3 Bft) 97,87 %
27.09.2021 12:44 20,5 C 20,6 C 18,9 C 81 % 1014,1 hPa 0,0 l/m 0 min 0 min 244 W/m 12,9 km/h (3 Bft) 97,87 %
27.09.2021 12:42 20,4 C 20,6 C 18,9 C 81 % 1014,2 hPa 0,0 l/m 0 min 0 min 246 W/m 16,1 km/h (3 Bft) 95,74 %
27.09.2021 12:40 20,4 C 20,6 C 18,9 C 82 % 1014,2 hPa 0,0 l/m 0 min 0 min 255 W/m 12,9 km/h (3 Bft) 97,87 %
27.09.2021 12:38 20,3 C 20,6 C 18,9 C 82 % 1014,1 hPa 0,0 l/m 0 min 0 min 246 W/m 12,9 km/h (3 Bft) 95,65 %
27.09.2021 12:36 20,2 C 20,6 C 18,4 C 82 % 1014,1 hPa 0,0 l/m 0 min 0 min 228 W/m 16,1 km/h (3 Bft) 97,87 %
27.09.2021 12:34 20,1 C 20,6 C 18,4 C 82 % 1014,2 hPa 0,0 l/m 0 min 0 min 231 W/m 12,9 km/h (3 Bft) 97,87 %
27.09.2021 12:32 20,1 C 20,0 C 18,4 C 82 % 1014,1 hPa 0,0 l/m 0 min 0 min 228 W/m 6,4 km/h (2 Bft) 97,87 %
27.09.2021 12:30 20,1 C 20,0 C 18,4 C 82 % 1014,1 hPa 0,0 l/m 0 min 0 min 224 W/m 12,9 km/h (3 Bft) 97,87 %
27.09.2021 12:28 20,0 C 20,0 C 18,4 C 82 % 1014,2 hPa 0,0 l/m 0 min 0 min 217 W/m 12,9 km/h (3 Bft) 97,87 %
27.09.2021 12:26 20,0 C 20,0 C 18,4 C 82 % 1014,2 hPa 0,0 l/m 0 min 0 min 191 W/m 12,9 km/h (3 Bft) 97,83 %
27.09.2021 12:24 20,0 C 20,0 C 18,4 C 82 % 1014,2 hPa 0,0 l/m 0 min 0 min 184 W/m 9,7 km/h (2 Bft) 95,74 %
27.09.2021 12:22 20,0 C 20,0 C 18,4 C 82 % 1014,2 hPa 0,0 l/m 0 min 0 min 183 W/m 12,9 km/h (3 Bft) 97,87 %
27.09.2021 12:20 19,9 C 19,4 C 17,8 C 82 % 1014,2 hPa 0,0 l/m 0 min 0 min 171 W/m 19,3 km/h (3 Bft) 97,87 %
27.09.2021 12:18 19,9 C 19,4 C 17,8 C 82 % 1014,2 hPa 0,0 l/m 0 min 0 min 155 W/m 16,1 km/h (3 Bft) 100,00 %
27.09.2021 12:16 19,9 C 19,4 C 18,4 C 82 % 1014,2 hPa 0,0 l/m 0 min 0 min 163 W/m 6,4 km/h (2 Bft) 97,87 %
27.09.2021 12:14 19,9 C 19,4 C 18,4 C 82 % 1014,2 hPa 0,0 l/m 0 min 0 min 186 W/m 19,3 km/h (3 Bft) 97,83 %
27.09.2021 12:12 19,9 C 19,4 C 18,4 C 82 % 1014,2 hPa 0,0 l/m 0 min 0 min 210 W/m 19,3 km/h (3 Bft) 100,00 %
27.09.2021 12:10 19,8 C 19,4 C 17,8 C 82 % 1014,2 hPa 0,0 l/m 0 min 0 min 192 W/m 6,4 km/h (2 Bft) 100,00 %
27.09.2021 12:08 19,8 C 19,4 C 17,8 C 82 % 1014,3 hPa 0,0 l/m 0 min 0 min 157 W/m 19,3 km/h (3 Bft) 97,89 %
27.09.2021 12:04 19,8 C 19,4 C 17,8 C 81 % 1014,3 hPa 0,0 l/m 0 min 0 min 147 W/m 12,9 km/h (3 Bft) 97,87 %
27.09.2021 12:02 19,8 C 19,4 C 17,8 C 81 % 1014,3 hPa 0,0 l/m 0 min 0 min 127 W/m 9,7 km/h (2 Bft) 97,83 %
27.09.2021 12:00 19,8 C 19,4 C 17,8 C 82 % 1014,2 hPa 0,0 l/m 0 min 0 min 125 W/m 19,3 km/h (3 Bft) 97,87 %
27.09.2021 11:58 19,9 C 19,4 C 17,8 C 82 % 1014,3 hPa 0,0 l/m 0 min 0 min 125 W/m 16,1 km/h (3 Bft) 97,87 %
27.09.2021 11:56 19,9 C 19,4 C 17,8 C 82 % 1014,2 hPa 0,0 l/m 0 min 0 min 115 W/m 12,9 km/h (3 Bft) 97,14 %
27.09.2021 11:54 19,9 C 19,4 C 17,8 C 82 % 1014,2 hPa 0,0 l/m 0 min 0 min 109 W/m 6,4 km/h (2 Bft) 98,31 %
27.09.2021 11:52 19,9 C 19,4 C 17,8 C 82 % 1014,2 hPa 0,0 l/m 0 min 0 min 108 W/m 9,7 km/h (2 Bft) 97,87 %
27.09.2021 11:50 19,8 C 19,4 C 17,8 C 83 % 1014,2 hPa 0,0 l/m 0 min 0 min 121 W/m 9,7 km/h (2 Bft) 95,65 %
27.09.2021 11:48 19,8 C 19,4 C 17,8 C 83 % 1014,3 hPa 0,0 l/m 0 min 0 min 139 W/m 19,3 km/h (3 Bft) 97,87 %
27.09.2021 11:46 19,8 C 19,4 C 18,4 C 83 % 1014,2 hPa 0,0 l/m 0 min 0 min 151 W/m 12,9 km/h (3 Bft) 97,14 %
27.09.2021 11:44 19,8 C 19,4 C 18,4 C 83 % 1014,2 hPa 0,0 l/m 0 min 0 min 164 W/m 16,1 km/h (3 Bft) 97,87 %
27.09.2021 11:42 19,8 C 19,4 C 18,4 C 83 % 1014,3 hPa 0,0 l/m 0 min 0 min 164 W/m 12,9 km/h (3 Bft) 97,87 %
27.09.2021 11:40 19,8 C 19,4 C 18,4 C 84 % 1014,2 hPa 0,0 l/m 0 min 0 min 172 W/m 16,1 km/h (3 Bft) 97,87 %
27.09.2021 11:38 19,8 C 19,4 C 18,4 C 84 % 1014,2 hPa 0,0 l/m 0 min 0 min 195 W/m 19,3 km/h (3 Bft) 97,87 %
27.09.2021 11:36 19,7 C 19,4 C 18,4 C 84 % 1014,2 hPa 0,0 l/m 0 min 0 min 211 W/m 16,1 km/h (3 Bft) 97,87 %
27.09.2021 11:34 19,7 C 19,4 C 18,4 C 84 % 1014,2 hPa 0,0 l/m 0 min 0 min 213 W/m 16,1 km/h (3 Bft) 98,28 %
27.09.2021 11:32 19,6 C 19,4 C 18,4 C 84 % 1014,2 hPa 0,0 l/m 0 min 0 min 214 W/m 16,1 km/h (3 Bft) 97,87 %
27.09.2021 11:30 19,6 C 19,4 C 18,4 C 84 % 1014,2 hPa 0,0 l/m 0 min 0 min 234 W/m 12,9 km/h (3 Bft) 100,00 %
27.09.2021 11:28 19,6 C 19,4 C 18,4 C 85 % 1014,2 hPa 0,0 l/m 0 min 0 min 226 W/m 19,3 km/h (3 Bft) 97,87 %
27.09.2021 11:26 19,5 C 19,4 C 18,4 C 85 % 1014,2 hPa 0,0 l/m 0 min 0 min 211 W/m 3,2 km/h (1 Bft) 100,00 %
27.09.2021 11:24 19,5 C 19,4 C 18,4 C 85 % 1014,2 hPa 0,0 l/m 0 min 0 min 209 W/m 6,4 km/h (2 Bft) 100,00 %
27.09.2021 11:22 19,5 C 19,4 C 18,4 C 85 % 1014,2 hPa 0,0 l/m 0 min 0 min 229 W/m 12,9 km/h (3 Bft) 100,00 %
27.09.2021 11:20 19,4 C 20,0 C 18,4 C 85 % 1014,2 hPa 0,0 l/m 0 min 0 min 248 W/m 12,9 km/h (3 Bft) 98,31 %
27.09.2021 11:18 19,4 C 20,0 C 18,4 C 85 % 1014,3 hPa 0,0 l/m 2 min 0 min 277 W/m 16,1 km/h (3 Bft) 100,00 %
27.09.2021 11:16 19,3 C 20,0 C 18,4 C 86 % 1014,3 hPa 0,0 l/m 2 min 0 min 294 W/m 12,9 km/h (3 Bft) 100,00 %
27.09.2021 11:14 19,2 C 19,4 C 18,4 C 86 % 1014,3 hPa 0,0 l/m 2 min 0 min 278 W/m 9,7 km/h (2 Bft) 100,00 %
27.09.2021 11:12 19,1 C 19,4 C 17,8 C 86 % 1014,2 hPa 0,0 l/m 2 min 0 min 254 W/m 19,3 km/h (3 Bft) 97,83 %
27.09.2021 11:10 19,1 C 19,4 C 18,4 C 86 % 1014,2 hPa 0,0 l/m 0 min 0 min 243 W/m 9,7 km/h (2 Bft) 100,00 %
27.09.2021 11:08 19,0 C 19,4 C 17,8 C 86 % 1014,3 hPa 0,0 l/m 0 min 0 min 233 W/m 12,9 km/h (3 Bft) 100,00 %
27.09.2021 11:06 19,0 C 19,4 C 17,8 C 86 % 1014,3 hPa 0,0 l/m 0 min 0 min 208 W/m 12,9 km/h (3 Bft) 100,00 %
27.09.2021 11:04 19,0 C 18,9 C 17,8 C 86 % 1014,2 hPa 0,0 l/m 0 min 0 min 182 W/m 22,5 km/h (4 Bft) 100,00 %
27.09.2021 11:02 18,9 C 18,9 C 17,8 C 86 % 1014,3 hPa 0,0 l/m 0 min 0 min 167 W/m 19,3 km/h (3 Bft) 100,00 %
27.09.2021 11:00 18,9 C 19,4 C 17,8 C 87 % 1014,2 hPa 0,0 l/m 0 min 0 min 156 W/m 16,1 km/h (3 Bft) 100,00 %
27.09.2021 10:58 18,8 C 18,9 C 17,8 C 87 % 1014,3 hPa 0,0 l/m 0 min 0 min 159 W/m 12,9 km/h (3 Bft) 97,14 %
27.09.2021 10:56 18,8 C 18,9 C 17,8 C 87 % 1014,3 hPa 0,0 l/m 0 min 0 min 164 W/m 12,9 km/h (3 Bft) 100,00 %
27.09.2021 10:54 18,7 C 18,9 C 17,8 C 87 % 1014,3 hPa 0,0 l/m 0 min 0 min 176 W/m 6,4 km/h (2 Bft) 100,00 %
27.09.2021 10:52 18,6 C 18,9 C 17,8 C 87 % 1014,3 hPa 0,0 l/m 0 min 0 min 179 W/m 16,1 km/h (3 Bft) 95,74 %
27.09.2021 10:50 18,6 C 18,9 C 17,3 C 87 % 1014,3 hPa 0,0 l/m 0 min 0 min 181 W/m 16,1 km/h (3 Bft) 100,00 %
27.09.2021 10:48 18,5 C 18,3 C 17,3 C 87 % 1014,3 hPa 0,0 l/m 0 min 0 min 177 W/m 16,1 km/h (3 Bft) 100,00 %
27.09.2021 10:46 18,5 C 18,3 C 17,3 C 88 % 1014,3 hPa 0,0 l/m 0 min 0 min 177 W/m 19,3 km/h (3 Bft) 97,14 %
27.09.2021 10:44 18,5 C 18,9 C 17,3 C 88 % 1014,3 hPa 0,0 l/m 0 min 0 min 177 W/m 16,1 km/h (3 Bft) 100,00 %
27.09.2021 10:42 18,4 C 18,9 C 17,3 C 88 % 1014,2 hPa 0,0 l/m 0 min 0 min 194 W/m 12,9 km/h (3 Bft) 100,00 %
27.09.2021 10:40 18,4 C 18,9 C 17,3 C 89 % 1014,2 hPa 0,0 l/m 2 min 0 min 236 W/m 16,1 km/h (3 Bft) 95,74 %
27.09.2021 10:38 18,3 C 18,3 C 17,3 C 89 % 1014,3 hPa 0,0 l/m 2 min 0 min 230 W/m 16,1 km/h (3 Bft) 97,87 %
27.09.2021 10:36 18,3 C 18,9 C 17,3 C 89 % 1014,3 hPa 0,0 l/m 0 min 0 min 213 W/m 12,9 km/h (3 Bft) 96,55 %
27.09.2021 10:34 18,1 C 18,9 C 17,3 C 89 % 1014,3 hPa 0,0 l/m 2 min 0 min 219 W/m 9,7 km/h (2 Bft) 100,00 %
27.09.2021 10:32 18,1 C 18,3 C 17,3 C 90 % 1014,3 hPa 0,0 l/m 2 min 0 min 228 W/m 9,7 km/h (2 Bft) 94,92 %
27.09.2021 10:30 18,0 C 18,3 C 17,3 C 90 % 1014,4 hPa 0,0 l/m 0 min 0 min 205 W/m 16,1 km/h (3 Bft) 97,92 %
27.09.2021 10:28 17,9 C 18,3 C 17,3 C 90 % 1014,4 hPa 0,0 l/m 0 min 0 min 201 W/m 9,7 km/h (2 Bft) 94,29 %
27.09.2021 10:26 17,8 C 18,3 C 16,7 C 90 % 1014,4 hPa 0,0 l/m 0 min 0 min 195 W/m 6,4 km/h (2 Bft) 95,74 %
27.09.2021 10:24 17,8 C 17,8 C 16,7 C 90 % 1014,4 hPa 0,0 l/m 0 min 0 min 184 W/m 12,9 km/h (3 Bft) 95,65 %
27.09.2021 10:22 17,7 C 17,8 C 16,7 C 90 % 1014,4 hPa 0,0 l/m 0 min 0 min 173 W/m 16,1 km/h (3 Bft) 95,74 %
27.09.2021 10:20 17,7 C 17,8 C 16,7 C 91 % 1014,4 hPa 0,0 l/m 0 min 0 min 170 W/m 12,9 km/h (3 Bft) 95,74 %
27.09.2021 10:18 17,6 C 17,8 C 16,7 C 91 % 1014,4 hPa 0,0 l/m 0 min 0 min 170 W/m 9,7 km/h (2 Bft) 91,49 %
27.09.2021 10:16 17,6 C 17,8 C 16,7 C 91 % 1014,4 hPa 0,0 l/m 0 min 0 min 171 W/m 12,9 km/h (3 Bft) 95,74 %
27.09.2021 10:14 17,5 C 17,8 C 16,7 C 91 % 1014,4 hPa 0,0 l/m 0 min 0 min 168 W/m 16,1 km/h (3 Bft) 95,74 %
27.09.2021 10:12 17,5 C 17,8 C 16,7 C 91 % 1014,5 hPa 0,0 l/m 0 min 0 min 164 W/m 12,9 km/h (3 Bft) 95,65 %
27.09.2021 10:10 17,5 C 17,2 C 16,7 C 92 % 1014,4 hPa 0,0 l/m 0 min 0 min 159 W/m 16,1 km/h (3 Bft) 95,74 %
27.09.2021 10:08 17,4 C 17,2 C 16,7 C 92 % 1014,5 hPa 0,0 l/m 0 min 0 min 153 W/m 16,1 km/h (3 Bft) 95,83 %
27.09.2021 10:06 17,4 C 17,8 C 16,7 C 92 % 1014,5 hPa 0,0 l/m 0 min 0 min 147 W/m 12,9 km/h (3 Bft) 95,74 %
27.09.2021 10:04 17,4 C 17,8 C 16,7 C 92 % 1014,5 hPa 0,0 l/m 0 min 0 min 144 W/m 12,9 km/h (3 Bft) 93,62 %
27.09.2021 10:02 17,3 C 17,8 C 16,7 C 93 % 1014,5 hPa 0,0 l/m 0 min 0 min 146 W/m 9,7 km/h (2 Bft) 91,67 %
27.09.2021 10:00 17,3 C 17,8 C 16,7 C 93 % 1014,5 hPa 0,0 l/m 0 min 0 min 150 W/m 16,1 km/h (3 Bft) 95,74 %
27.09.2021 09:58 17,1 C 17,8 C 16,7 C 93 % 1014,5 hPa 0,0 l/m 0 min 0 min 170 W/m 9,7 km/h (2 Bft) 93,62 %
27.09.2021 09:56 17,1 C 17,8 C 16,7 C 93 % 1014,5 hPa 0,0 l/m 2 min 0 min 204 W/m 16,1 km/h (3 Bft) 93,62 %
27.09.2021 09:54 17,0 C 17,8 C 16,7 C 94 % 1014,5 hPa 0,0 l/m 2 min 0 min 273 W/m 16,1 km/h (3 Bft) 93,62 %
27.09.2021 09:52 16,9 C 17,8 C 16,7 C 94 % 1014,5 hPa 0,0 l/m 2 min 0 min 227 W/m 16,1 km/h (3 Bft) 93,62 %
27.09.2021 09:50 16,9 C 17,2 C 16,1 C 94 % 1014,5 hPa 0,0 l/m 2 min 0 min 249 W/m 12,9 km/h (3 Bft) 93,48 %
27.09.2021 09:48 16,8 C 17,2 C 16,1 C 94 % 1014,5 hPa 0,0 l/m 2 min 0 min 324 W/m 12,9 km/h (3 Bft) 91,49 %
27.09.2021 09:46 16,6 C 17,2 C 16,1 C 94 % 1014,5 hPa 0,0 l/m 2 min 0 min 305 W/m 16,1 km/h (3 Bft) 93,62 %
27.09.2021 09:44 16,6 C 17,2 C 16,1 C 95 % 1014,5 hPa 0,0 l/m 2 min 0 min 269 W/m 19,3 km/h (3 Bft) 95,74 %
27.09.2021 09:42 16,5 C 16,7 C 15,6 C 95 % 1014,5 hPa 0,0 l/m 2 min 0 min 210 W/m 16,1 km/h (3 Bft) 95,74 %
27.09.2021 09:40 16,5 C 16,7 C 15,6 C 95 % 1014,5 hPa 0,0 l/m 2 min 0 min 185 W/m 12,9 km/h (3 Bft) 97,83 %
27.09.2021 09:38 16,4 C 16,7 C 15,6 C 95 % 1014,5 hPa 0,0 l/m 2 min 0 min 184 W/m 16,1 km/h (3 Bft) 95,74 %
27.09.2021 09:36 16,4 C 16,7 C 15,6 C 95 % 1014,6 hPa 0,0 l/m 0 min 0 min 137 W/m 9,7 km/h (2 Bft) 97,87 %
27.09.2021 09:34 16,3 C 16,7 C 15,6 C 95 % 1014,6 hPa 0,0 l/m 0 min 0 min 117 W/m 6,4 km/h (2 Bft) 97,87 %
27.09.2021 09:32 16,3 C 16,7 C 15,6 C 95 % 1014,6 hPa 0,0 l/m 0 min 0 min 107 W/m 12,9 km/h (3 Bft) 95,74 %
27.09.2021 09:30 16,2 C 16,1 C 15,6 C 95 % 1014,7 hPa 0,0 l/m 0 min 0 min 92 W/m 9,7 km/h (2 Bft) 91,49 %
27.09.2021 09:28 16,1 C 16,1 C 15,6 C 95 % 1014,7 hPa 0,0 l/m 0 min 0 min 82 W/m 16,1 km/h (3 Bft) 97,87 %
27.09.2021 09:26 16,1 C 16,1 C 15,6 C 95 % 1014,7 hPa 0,0 l/m 0 min 0 min 80 W/m 6,4 km/h (2 Bft) 97,83 %
27.09.2021 09:24 16,1 C 16,1 C 15,6 C 95 % 1014,8 hPa 0,0 l/m 0 min 0 min 70 W/m 12,9 km/h (3 Bft) 100,00 %
27.09.2021 09:22 16,0 C 16,1 C 15,6 C 95 % 1014,8 hPa 0,0 l/m 0 min 0 min 69 W/m 6,4 km/h (2 Bft) 100,00 %
27.09.2021 09:20 16,0 C 16,1 C 15,6 C 95 % 1014,8 hPa 0,0 l/m 0 min 0 min 74 W/m 9,7 km/h (2 Bft) 100,00 %
27.09.2021 09:18 16,0 C 16,1 C 15,6 C 96 % 1014,7 hPa 0,0 l/m 0 min 0 min 76 W/m 16,1 km/h (3 Bft) 100,00 %
27.09.2021 09:16 15,9 C 16,1 C 15,6 C 96 % 1014,7 hPa 0,0 l/m 0 min 0 min 75 W/m 6,4 km/h (2 Bft) 97,83 %
27.09.2021 09:14 15,9 C 16,1 C 15,0 C 96 % 1014,7 hPa 0,0 l/m 0 min 0 min 74 W/m 9,7 km/h (2 Bft) 100,00 %
27.09.2021 09:12 15,9 C 16,1 C 15,0 C 96 % 1014,7 hPa 0,0 l/m 0 min 0 min 71 W/m 6,4 km/h (2 Bft) 100,00 %
27.09.2021 09:10 15,8 C 16,1 C 15,0 C 96 % 1014,7 hPa 0,0 l/m 0 min 0 min 71 W/m 6,4 km/h (2 Bft) 100,00 %
27.09.2021 09:08 15,8 C 15,6 C 15,0 C 96 % 1014,7 hPa 0,0 l/m 0 min 0 min 72 W/m 6,4 km/h (2 Bft) 100,00 %
27.09.2021 09:06 15,8 C 15,6 C 15,0 C 96 % 1014,7 hPa 0,0 l/m 0 min 0 min 81 W/m 12,9 km/h (3 Bft) 100,00 %
27.09.2021 09:04 15,7 C 15,6 C 15,0 C 96 % 1014,8 hPa 0,0 l/m 0 min 0 min 87 W/m 12,9 km/h (3 Bft) 97,83 %
27.09.2021 09:02 15,6 C 15,6 C 15,0 C 96 % 1014,8 hPa 0,0 l/m 0 min 0 min 82 W/m 12,9 km/h (3 Bft) 100,00 %
27.09.2021 09:00 15,6 C 15,6 C 15,0 C 96 % 1014,9 hPa 0,0 l/m 0 min 0 min 76 W/m 12,9 km/h (3 Bft) 100,00 %
27.09.2021 08:58 15,6 C 15,6 C 15,0 C 96 % 1014,8 hPa 0,0 l/m 0 min 0 min 76 W/m 16,1 km/h (3 Bft) 100,00 %
27.09.2021 08:56 15,5 C 15,6 C 15,0 C 96 % 1014,9 hPa 0,0 l/m 0 min 0 min 74 W/m 12,9 km/h (3 Bft) 100,00 %
27.09.2021 08:54 15,5 C 15,6 C 15,0 C 96 % 1014,9 hPa 0,0 l/m 0 min 0 min 72 W/m 6,4 km/h (2 Bft) 100,00 %
27.09.2021 08:52 15,5 C 15,6 C 15,0 C 96 % 1014,9 hPa 0,0 l/m 0 min 0 min 70 W/m 6,4 km/h (2 Bft) 100,00 %
27.09.2021 08:50 15,4 C 15,0 C 14,5 C 96 % 1014,9 hPa 0,0 l/m 0 min 0 min 68 W/m 6,4 km/h (2 Bft) 100,00 %
27.09.2021 08:48 15,4 C 15,0 C 14,5 C 96 % 1014,9 hPa 0,0 l/m 0 min 0 min 64 W/m 12,9 km/h (3 Bft) 97,87 %
27.09.2021 08:46 15,4 C 15,0 C 14,5 C 96 % 1014,9 hPa 0,0 l/m 0 min 0 min 62 W/m 3,2 km/h (1 Bft) 100,00 %
27.09.2021 08:44 15,4 C 15,0 C 14,5 C 96 % 1014,9 hPa 0,0 l/m 0 min 0 min 59 W/m 6,4 km/h (2 Bft) 100,00 %
27.09.2021 08:42 15,4 C 15,0 C 14,5 C 96 % 1014,9 hPa 0,0 l/m 0 min 0 min 55 W/m 3,2 km/h (1 Bft) 97,87 %
27.09.2021 08:40 15,4 C 15,0 C 14,5 C 96 % 1014,9 hPa 0,0 l/m 0 min 0 min 53 W/m 16,1 km/h (3 Bft) 100,00 %
27.09.2021 08:38 15,4 C 15,0 C 14,5 C 96 % 1015,0 hPa 0,0 l/m 0 min 0 min 58 W/m 3,2 km/h (1 Bft) 100,00 %
27.09.2021 08:36 15,4 C 15,0 C 14,5 C 96 % 1015,0 hPa 0,0 l/m 0 min 0 min 53 W/m 6,4 km/h (2 Bft) 100,00 %
27.09.2021 08:34 15,4 C 15,0 C 14,5 C 96 % 1014,9 hPa 0,0 l/m 0 min 0 min 47 W/m 12,9 km/h (3 Bft) 98,15 %
27.09.2021 08:32 15,4 C 15,0 C 14,5 C 96 % 1014,9 hPa 0,0 l/m 0 min 0 min 43 W/m 12,9 km/h (3 Bft) 100,00 %
27.09.2021 08:30 15,4 C 15,0 C 14,5 C 96 % 1014,9 hPa 0,0 l/m 0 min 0 min 42 W/m 12,9 km/h (3 Bft) 100,00 %
27.09.2021 08:28 15,3 C 15,0 C 14,5 C 96 % 1014,9 hPa 0,0 l/m 0 min 0 min 43 W/m 12,9 km/h (3 Bft) 100,00 %
27.09.2021 08:26 15,4 C 15,0 C 14,5 C 96 % 1014,9 hPa 0,0 l/m 0 min 0 min 38 W/m 12,9 km/h (3 Bft) 100,00 %
27.09.2021 08:24 15,3 C 15,0 C 14,5 C 96 % 1014,9 hPa 0,0 l/m 0 min 0 min 35 W/m 6,4 km/h (2 Bft) 100,00 %
27.09.2021 08:22 15,3 C 15,0 C 14,5 C 96 % 1014,8 hPa 0,0 l/m 0 min 0 min 33 W/m 3,2 km/h (1 Bft) 97,87 %
27.09.2021 08:20 15,3 C 15,0 C 14,5 C 96 % 1014,9 hPa 0,0 l/m 0 min 0 min 33 W/m 6,4 km/h (2 Bft) 100,00 %
27.09.2021 08:18 15,3 C 15,0 C 14,5 C 96 % 1014,9 hPa 0,0 l/m 0 min 0 min 33 W/m 6,4 km/h (2 Bft) 100,00 %
27.09.2021 08:16 15,3 C 15,0 C 14,5 C 96 % 1014,9 hPa 0,0 l/m 0 min 0 min 28 W/m 12,9 km/h (3 Bft) 100,00 %
27.09.2021 08:14 15,3 C 15,0 C 14,5 C 96 % 1014,9 hPa 0,0 l/m 0 min 0 min 24 W/m 6,4 km/h (2 Bft) 100,00 %
27.09.2021 08:12 15,3 C 15,0 C 14,5 C 96 % 1014,9 hPa 0,0 l/m 0 min 0 min 23 W/m 6,4 km/h (2 Bft) 100,00 %
27.09.2021 08:10 15,2 C 14,4 C 14,5 C 96 % 1014,9 hPa 0,0 l/m 0 min 0 min 22 W/m 6,4 km/h (2 Bft) 100,00 %
27.09.2021 08:08 15,2 C 14,4 C 14,5 C 96 % 1014,9 hPa 0,0 l/m 0 min 0 min 24 W/m 6,4 km/h (2 Bft) 100,00 %
27.09.2021 08:06 15,2 C 14,4 C 14,5 C 96 % 1014,9 hPa 0,0 l/m 0 min 0 min 25 W/m 12,9 km/h (3 Bft) 97,87 %
27.09.2021 08:04 15,2 C 14,4 C 14,5 C 96 % 1014,9 hPa 0,0 l/m 0 min 0 min 23 W/m 6,4 km/h (2 Bft) 100,00 %
27.09.2021 08:02 15,2 C 14,4 C 14,5 C 96 % 1014,9 hPa 0,0 l/m 0 min 0 min 20 W/m 6,4 km/h (2 Bft) 100,00 %
27.09.2021 08:00 15,2 C 14,4 C 14,5 C 96 % 1014,9 hPa 0,0 l/m 0 min 0 min 18 W/m 6,4 km/h (2 Bft) 97,87 %
27.09.2021 07:58 15,2 C 14,4 C 14,5 C 96 % 1014,9 hPa 0,0 l/m 0 min 0 min 16 W/m 6,4 km/h (2 Bft) 97,87 %
27.09.2021 07:56 15,2 C 14,4 C 14,5 C 96 % 1014,9 hPa 0,0 l/m 0 min 0 min 16 W/m 12,9 km/h (3 Bft) 97,83 %
27.09.2021 07:54 15,2 C 14,4 C 14,5 C 96 % 1014,9 hPa 0,0 l/m 0 min 0 min 13 W/m 6,4 km/h (2 Bft) 97,87 %
27.09.2021 07:52 15,2 C 14,4 C 14,5 C 96 % 1014,9 hPa 0,0 l/m 0 min 0 min 12 W/m 12,9 km/h (3 Bft) 95,74 %
27.09.2021 07:50 15,2 C 14,4 C 14,5 C 96 % 1014,9 hPa 0,0 l/m 0 min 0 min 12 W/m 9,7 km/h (2 Bft) 97,87 %
27.09.2021 07:48 15,2 C 14,4 C 14,5 C 96 % 1014,9 hPa 0,0 l/m 0 min 0 min 10 W/m 6,4 km/h (2 Bft) 95,74 %
27.09.2021 07:46 15,2 C 14,4 C 14,5 C 96 % 1015,0 hPa 0,0 l/m 0 min 0 min 9 W/m 6,4 km/h (2 Bft) 95,74 %
27.09.2021 07:44 15,1 C 14,4 C 14,5 C 96 % 1015,0 hPa 0,0 l/m 0 min 0 min 7 W/m 6,4 km/h (2 Bft) 95,65 %
27.09.2021 07:42 15,1 C 14,4 C 14,5 C 96 % 1015,0 hPa 0,0 l/m 0 min 0 min 7 W/m 12,9 km/h (3 Bft) 91,49 %
27.09.2021 07:40 15,1 C 14,4 C 14,5 C 96 % 1015,0 hPa 0,0 l/m 0 min 0 min 5 W/m 9,7 km/h (2 Bft) 93,62 %
27.09.2021 07:38 15,1 C 14,4 C 14,5 C 96 % 1015,0 hPa 0,0 l/m 0 min 0 min 5 W/m 19,3 km/h (3 Bft) 95,12 %
27.09.2021 07:36 15,1 C 14,4 C 14,5 C 96 % 1015,0 hPa 0,0 l/m 0 min 0 min 1 W/m 6,4 km/h (2 Bft) 92,45 %
27.09.2021 07:34 15,1 C 14,4 C 13,9 C 96 % 1015,0 hPa 0,0 l/m 0 min 0 min 0 W/m 16,1 km/h (3 Bft) 91,49 %
27.09.2021 07:32 15,0 C 14,4 C 13,9 C 96 % 1015,0 hPa 0,0 l/m 0 min 0 min 0 W/m 12,9 km/h (3 Bft) 93,48 %
27.09.2021 07:30 15,0 C 14,4 C 13,9 C 96 % 1015,0 hPa 0,0 l/m 0 min 0 min 0 W/m 12,9 km/h (3 Bft) 91,49 %
27.09.2021 07:28 15,0 C 14,4 C 13,9 C 96 % 1015,0 hPa 0,0 l/m 0 min 0 min 0 W/m 3,2 km/h (1 Bft) 93,62 %
27.09.2021 07:26 15,0 C 14,4 C 13,9 C 96 % 1015,0 hPa 0,0 l/m 0 min 0 min 0 W/m 6,4 km/h (2 Bft) 93,62 %
27.09.2021 07:24 15,0 C 14,4 C 13,9 C 96 % 1014,9 hPa 0,0 l/m 0 min 0 min 0 W/m 6,4 km/h (2 Bft) 95,74 %
27.09.2021 07:22 15,0 C 14,4 C 13,9 C 96 % 1015,0 hPa 0,0 l/m 0 min 0 min 0 W/m 6,4 km/h (2 Bft) 95,74 %
27.09.2021 07:20 14,9 C 14,4 C 13,9 C 96 % 1015,0 hPa 0,0 l/m 0 min 0 min 0 W/m 12,9 km/h (3 Bft) 95,65 %
27.09.2021 07:18 14,9 C 14,4 C 13,9 C 96 % 1015,1 hPa 0,0 l/m 0 min 0 min 0 W/m 12,9 km/h (3 Bft) 95,74 %
27.09.2021 07:16 14,9 C 14,4 C 13,9 C 96 % 1015,1 hPa 0,0 l/m 0 min 0 min 0 W/m 12,9 km/h (3 Bft) 95,12 %
27.09.2021 07:14 14,9 C 14,4 C 13,9 C 96 % 1015,1 hPa 0,0 l/m 0 min 0 min 0 W/m 6,4 km/h (2 Bft) 93,62 %
27.09.2021 07:12 14,8 C 14,4 C 13,9 C 96 % 1015,2 hPa 0,0 l/m 0 min 0 min 0 W/m 6,4 km/h (2 Bft) 95,74 %
27.09.2021 07:10 14,8 C 14,4 C 13,9 C 96 % 1015,2 hPa 0,0 l/m 0 min 0 min 0 W/m 6,4 km/h (2 Bft) 93,62 %
27.09.2021 07:08 14,8 C 14,4 C 13,9 C 96 % 1015,2 hPa 0,0 l/m 0 min 0 min 0 W/m 6,4 km/h (2 Bft) 95,74 %
27.09.2021 07:06 14,7 C 14,4 C 13,9 C 96 % 1015,2 hPa 0,0 l/m 0 min 0 min 0 W/m 3,2 km/h (1 Bft) 95,65 %
27.09.2021 07:04 14,7 C 14,4 C 13,9 C 96 % 1015,2 hPa 0,0 l/m 0 min 0 min 0 W/m 12,9 km/h (3 Bft) 95,74 %
27.09.2021 07:02 14,6 C 14,4 C 13,9 C 96 % 1015,2 hPa 0,0 l/m 0 min 0 min 0 W/m 12,9 km/h (3 Bft) 93,62 %
27.09.2021 07:00 14,6 C 14,4 C 13,9 C 96 % 1015,2 hPa 0,0 l/m 0 min 0 min 0 W/m 3,2 km/h (1 Bft) 95,74 %
27.09.2021 06:58 14,6 C 14,4 C 13,9 C 96 % 1015,1 hPa 0,0 l/m 0 min 0 min 0 W/m 12,9 km/h (3 Bft) 95,74 %
27.09.2021 06:56 14,5 C 14,4 C 13,9 C 96 % 1015,1 hPa 0,0 l/m 0 min 0 min 0 W/m 6,4 km/h (2 Bft) 100,00 %
27.09.2021 06:54 14,5 C 13,9 C 13,9 C 96 % 1015,1 hPa 0,0 l/m 0 min 0 min 0 W/m 3,2 km/h (1 Bft) 97,87 %
27.09.2021 06:52 14,5 C 13,9 C 13,9 C 96 % 1015,1 hPa 0,0 l/m 0 min 0 min 0 W/m 3,2 km/h (1 Bft) 97,87 %
27.09.2021 06:50 14,5 C 13,9 C 13,4 C 96 % 1015,2 hPa 0,0 l/m 0 min 0 min 0 W/m 6,4 km/h (2 Bft) 100,00 %
27.09.2021 06:48 14,4 C 13,9 C 13,4 C 96 % 1015,2 hPa 0,0 l/m 0 min 0 min 0 W/m 6,4 km/h (2 Bft) 100,00 %
27.09.2021 06:46 14,4 C 13,9 C 13,4 C 96 % 1015,2 hPa 0,0 l/m 0 min 0 min 0 W/m 6,4 km/h (2 Bft) 100,00 %
27.09.2021 06:44 14,4 C 13,9 C 13,4 C 96 % 1015,1 hPa 0,0 l/m 0 min 0 min 0 W/m 12,9 km/h (3 Bft) 97,83 %
27.09.2021 06:42 14,4 C 13,9 C 13,4 C 96 % 1015,2 hPa 0,0 l/m 0 min 0 min 0 W/m 6,4 km/h (2 Bft) 100,00 %
27.09.2021 06:40 14,3 C 13,9 C 13,4 C 96 % 1015,2 hPa 0,0 l/m 0 min 0 min 0 W/m 6,4 km/h (2 Bft) 100,00 %
27.09.2021 06:38 14,3 C 13,9 C 13,4 C 96 % 1015,2 hPa 0,0 l/m 0 min 0 min 0 W/m 6,4 km/h (2 Bft) 100,00 %
27.09.2021 06:36 14,3 C 13,9 C 13,4 C 96 % 1015,2 hPa 0,0 l/m 0 min 0 min 0 W/m 6,4 km/h (2 Bft) 97,87 %
27.09.2021 06:34 14,2 C 13,9 C 13,4 C 96 % 1015,3 hPa 0,0 l/m 0 min 0 min 0 W/m 6,4 km/h (2 Bft) 100,00 %
27.09.2021 06:32 14,2 C 13,9 C 13,4 C 96 % 1015,2 hPa 0,0 l/m 0 min 0 min 0 W/m 6,4 km/h (2 Bft) 100,00 %
27.09.2021 06:30 14,2 C 13,3 C 13,4 C 96 % 1015,2 hPa 0,0 l/m 0 min 0 min 0 W/m 6,4 km/h (2 Bft) 100,00 %
27.09.2021 06:28 14,3 C 13,3 C 13,4 C 96 % 1015,3 hPa 0,0 l/m 0 min 0 min 0 W/m 6,4 km/h (2 Bft) 100,00 %
27.09.2021 06:26 14,2 C 13,3 C 13,4 C 96 % 1015,2 hPa 0,0 l/m 0 min 0 min 0 W/m 6,4 km/h (2 Bft) 100,00 %
27.09.2021 06:24 14,2 C 13,3 C 13,4 C 96 % 1015,2 hPa 0,0 l/m 0 min 0 min 0 W/m 3,2 km/h (1 Bft) 97,87 %
27.09.2021 06:22 14,3 C 13,3 C 13,4 C 95 % 1015,2 hPa 0,0 l/m 0 min 0 min 0 W/m 6,4 km/h (2 Bft) 100,00 %
27.09.2021 06:20 14,2 C 13,3 C 13,4 C 95 % 1015,2 hPa 0,0 l/m 0 min 0 min 0 W/m 6,4 km/h (2 Bft) 100,00 %
27.09.2021 06:18 14,2 C 13,3 C 13,4 C 95 % 1015,2 hPa 0,0 l/m 0 min 0 min 0 W/m 6,4 km/h (2 Bft) 100,00 %
27.09.2021 06:16 14,3 C 13,3 C 13,4 C 95 % 1015,2 hPa 0,0 l/m 0 min 0 min 0 W/m 3,2 km/h (1 Bft) 100,00 %
27.09.2021 06:14 14,2 C 13,3 C 13,4 C 95 % 1015,2 hPa 0,0 l/m 0 min 0 min 0 W/m 6,4 km/h (2 Bft) 100,00 %
27.09.2021 06:12 14,3 C 13,3 C 13,4 C 95 % 1015,2 hPa 0,0 l/m 0 min 0 min 0 W/m 12,9 km/h (3 Bft) 100,00 %
27.09.2021 06:10 14,3 C 13,3 C 13,4 C 95 % 1015,2 hPa 0,0 l/m 0 min 0 min 0 W/m 6,4 km/h (2 Bft) 97,87 %
27.09.2021 06:08 14,3 C 13,3 C 13,4 C 95 % 1015,2 hPa 0,0 l/m 0 min 0 min 0 W/m 6,4 km/h (2 Bft) 100,00 %
27.09.2021 06:06 14,3 C 13,3 C 13,4 C 95 % 1015,2 hPa 0,0 l/m 0 min 0 min 0 W/m 6,4 km/h (2 Bft) 100,00 %
27.09.2021 06:04 14,3 C 13,3 C 13,4 C 95 % 1015,1 hPa 0,0 l/m 0 min 0 min 0 W/m 3,2 km/h (1 Bft) 97,87 %
27.09.2021 06:02 14,3 C 13,3 C 13,4 C 95 % 1015,1 hPa 0,0 l/m 0 min 0 min 0 W/m 3,2 km/h (1 Bft) 97,87 %
27.09.2021 06:00 14,3 C 13,3 C 13,4 C 95 % 1015,1 hPa 0,0 l/m 0 min 0 min 0 W/m 3,2 km/h (1 Bft) 97,87 %
27.09.2021 05:58 14,3 C 13,3 C 13,4 C 95 % 1015,1 hPa 0,0 l/m 0 min 0 min 0 W/m 6,4 km/h (2 Bft) 97,83 %
27.09.2021 05:56 14,3 C 13,3 C 13,4 C 95 % 1015,1 hPa 0,0 l/m 0 min 0 min 0 W/m 3,2 km/h (1 Bft) 95,74 %
27.09.2021 05:54 14,3 C 13,3 C 13,4 C 95 % 1015,1 hPa 0,0 l/m 0 min 0 min 0 W/m 3,2 km/h (1 Bft) 97,87 %
27.09.2021 05:52 14,4 C 13,3 C 13,4 C 95 % 1015,0 hPa 0,0 l/m 0 min 0 min 0 W/m 3,2 km/h (1 Bft) 97,87 %
27.09.2021 05:50 14,4 C 13,3 C 13,4 C 95 % 1015,0 hPa 0,0 l/m 0 min 0 min 0 W/m 3,2 km/h (1 Bft) 97,87 %
27.09.2021 05:48 14,4 C 13,3 C 13,4 C 95 % 1015,0 hPa 0,0 l/m 0 min 0 min 0 W/m 3,2 km/h (1 Bft) 97,87 %
27.09.2021 05:46 14,4 C 13,3 C 13,4 C 95 % 1015,0 hPa 0,0 l/m 0 min 0 min 0 W/m 3,2 km/h (1 Bft) 97,83 %
27.09.2021 05:44 14,4 C 13,9 C 13,4 C 95 % 1014,9 hPa 0,0 l/m 0 min 0 min 0 W/m 3,2 km/h (1 Bft) 97,87 %
27.09.2021 05:42 14,4 C 13,9 C 13,4 C 95 % 1015,0 hPa 0,0 l/m 0 min 0 min 0 W/m 3,2 km/h (1 Bft) 97,87 %
27.09.2021 05:40 14,4 C 13,3 C 13,4 C 95 % 1015,0 hPa 0,0 l/m 0 min 0 min 0 W/m 3,2 km/h (1 Bft) 97,87 %
27.09.2021 05:38 14,4 C 13,3 C 13,4 C 95 % 1015,0 hPa 0,0 l/m 0 min 0 min 0 W/m 3,2 km/h (1 Bft) 95,74 %
27.09.2021 05:36 14,4 C 13,9 C 13,4 C 95 % 1015,0 hPa 0,0 l/m 0 min 0 min 0 W/m 3,2 km/h (1 Bft) 97,87 %
27.09.2021 05:34 14,4 C 13,9 C 13,4 C 95 % 1015,1 hPa 0,0 l/m 0 min 0 min 0 W/m 3,2 km/h (1 Bft) 95,65 %
27.09.2021 05:32 14,4 C 13,3 C 13,4 C 95 % 1015,1 hPa 0,0 l/m 0 min 0 min 0 W/m 3,2 km/h (1 Bft) 100,00 %
27.09.2021 05:30 14,4 C 13,3 C 13,4 C 95 % 1015,0 hPa 0,0 l/m 0 min 0 min 0 W/m 6,4 km/h (2 Bft) 97,87 %
27.09.2021 05:28 14,4 C 13,3 C 13,4 C 95 % 1015,1 hPa 0,0 l/m 0 min 0 min 0 W/m 6,4 km/h (2 Bft) 97,87 %
27.09.2021 05:26 14,4 C 13,3 C 13,4 C 95 % 1015,0 hPa 0,0 l/m 0 min 0 min 0 W/m 3,2 km/h (1 Bft) 97,87 %
27.09.2021 05:24 14,4 C 13,9 C 13,4 C 95 % 1015,1 hPa 0,0 l/m 0 min 0 min 0 W/m 3,2 km/h (1 Bft) 100,00 %
27.09.2021 05:22 14,5 C 13,9 C 13,4 C 95 % 1015,1 hPa 0,0 l/m 0 min 0 min 0 W/m 3,2 km/h (1 Bft) 100,00 %
27.09.2021 05:20 14,5 C 13,9 C 13,4 C 95 % 1015,0 hPa 0,0 l/m 0 min 0 min 0 W/m 3,2 km/h (1 Bft) 100,00 %
27.09.2021 05:18 14,5 C 13,9 C 13,4 C 95 % 1015,1 hPa 0,0 l/m 0 min 0 min 0 W/m 3,2 km/h (1 Bft) 100,00 %
27.09.2021 05:16 14,5 C 13,9 C 13,4 C 95 % 1015,1 hPa 0,0 l/m 0 min 0 min 0 W/m 3,2 km/h (1 Bft) 100,00 %
27.09.2021 05:14 14,5 C 13,9 C 13,4 C 95 % 1015,1 hPa 0,0 l/m 0 min 0 min 0 W/m 3,2 km/h (1 Bft) 100,00 %
27.09.2021 05:12 14,5 C 13,9 C 13,4 C 95 % 1015,2 hPa 0,0 l/m 0 min 0 min 0 W/m 3,2 km/h (1 Bft) 100,00 %
27.09.2021 05:10 14,5 C 13,9 C 13,4 C 95 % 1015,2 hPa 0,0 l/m 0 min 0 min 0 W/m 6,4 km/h (2 Bft) 100,00 %
27.09.2021 05:08 14,5 C 13,9 C 13,4 C 95 % 1015,2 hPa 0,0 l/m 0 min 0 min 0 W/m 3,2 km/h (1 Bft) 100,00 %
27.09.2021 05:06 14,5 C 13,9 C 13,4 C 95 % 1015,3 hPa 0,0 l/m 0 min 0 min 0 W/m 6,4 km/h (2 Bft) 97,87 %
27.09.2021 05:04 14,5 C 13,9 C 13,4 C 95 % 1015,3 hPa 0,0 l/m 0 min 0 min 0 W/m 6,4 km/h (2 Bft) 97,87 %
27.09.2021 05:02 14,5 C 13,9 C 13,4 C 95 % 1015,3 hPa 0,0 l/m 0 min 0 min 0 W/m 12,9 km/h (3 Bft) 97,87 %
27.09.2021 05:00 14,5 C 13,9 C 13,4 C 95 % 1015,3 hPa 0,0 l/m 0 min 0 min 0 W/m 6,4 km/h (2 Bft) 95,74 %
27.09.2021 04:58 14,5 C 13,9 C 13,4 C 95 % 1015,3 hPa 0,0 l/m 0 min 0 min 0 W/m 3,2 km/h (1 Bft) 97,83 %
27.09.2021 04:56 14,5 C 13,9 C 13,4 C 95 % 1015,3 hPa 0,0 l/m 0 min 0 min 0 W/m 3,2 km/h (1 Bft) 97,87 %
27.09.2021 04:54 14,5 C 13,9 C 13,4 C 95 % 1015,3 hPa 0,0 l/m 0 min 0 min 0 W/m 3,2 km/h (1 Bft) 97,87 %
27.09.2021 04:52 14,5 C 13,9 C 13,4 C 95 % 1015,4 hPa 0,0 l/m 0 min 0 min 0 W/m 3,2 km/h (1 Bft) 95,74 %
27.09.2021 04:50 14,5 C 13,9 C 13,4 C 95 % 1015,4 hPa 0,0 l/m 0 min 0 min 0 W/m 3,2 km/h (1 Bft) 95,74 %
27.09.2021 04:48 14,5 C 13,9 C 13,4 C 95 % 1015,4 hPa 0,0 l/m 0 min 0 min 0 W/m 3,2 km/h (1 Bft) 95,74 %
27.09.2021 04:46 14,5 C 13,9 C 13,4 C 95 % 1015,4 hPa 0,0 l/m 0 min 0 min 0 W/m 3,2 km/h (1 Bft) 93,48 %
27.09.2021 04:44 14,5 C 13,9 C 13,4 C 95 % 1015,4 hPa 0,0 l/m 0 min 0 min 0 W/m 6,4 km/h (2 Bft) 95,74 %
27.09.2021 04:42 14,5 C 13,9 C 13,4 C 95 % 1015,4 hPa 0,0 l/m 0 min 0 min 0 W/m 3,2 km/h (1 Bft) 93,62 %
27.09.2021 04:40 14,5 C 13,9 C 13,4 C 95 % 1015,5 hPa 0,0 l/m 0 min 0 min 0 W/m 6,4 km/h (2 Bft) 93,62 %
27.09.2021 04:38 14,5 C 13,9 C 13,4 C 95 % 1015,4 hPa 0,0 l/m 0 min 0 min 0 W/m 3,2 km/h (1 Bft) 93,62 %
27.09.2021 04:36 14,5 C 13,9 C 13,4 C 95 % 1015,4 hPa 0,0 l/m 0 min 0 min 0 W/m 3,2 km/h (1 Bft) 95,65 %
27.09.2021 04:34 14,5 C 13,9 C 13,4 C 95 % 1015,5 hPa 0,0 l/m 0 min 0 min 0 W/m 3,2 km/h (1 Bft) 95,74 %
27.09.2021 04:32 14,5 C 13,9 C 13,4 C 95 % 1015,5 hPa 0,0 l/m 0 min 0 min 0 W/m 6,4 km/h (2 Bft) 94,29 %
27.09.2021 04:30 14,5 C 13,9 C 13,4 C 94 % 1015,5 hPa 0,0 l/m 0 min 0 min 0 W/m 6,4 km/h (2 Bft) 95,74 %
27.09.2021 04:28 14,5 C 13,9 C 13,4 C 94 % 1015,5 hPa 0,0 l/m 0 min 0 min 0 W/m 3,2 km/h (1 Bft) 95,74 %
27.09.2021 04:26 14,5 C 13,9 C 13,4 C 94 % 1015,6 hPa 0,0 l/m 0 min 0 min 0 W/m 3,2 km/h (1 Bft) 95,74 %
27.09.2021 04:24 14,5 C 13,9 C 13,4 C 94 % 1015,6 hPa 0,0 l/m 0 min 0 min 0 W/m 6,4 km/h (2 Bft) 97,87 %
27.09.2021 04:22 14,5 C 13,9 C 13,4 C 94 % 1015,6 hPa 0,0 l/m 0 min 0 min 0 W/m 6,4 km/h (2 Bft) 95,74 %
27.09.2021 04:20 14,5 C 13,9 C 13,4 C 94 % 1015,5 hPa 0,0 l/m 0 min 0 min 0 W/m 3,2 km/h (1 Bft) 97,83 %
27.09.2021 04:18 14,6 C 13,9 C 13,4 C 94 % 1015,5 hPa 0,0 l/m 0 min 0 min 0 W/m 6,4 km/h (2 Bft) 97,87 %
27.09.2021 04:16 14,6 C 13,9 C 13,4 C 94 % 1015,5 hPa 0,0 l/m 0 min 0 min 0 W/m 3,2 km/h (1 Bft) 93,62 %
27.09.2021 04:14 14,6 C 13,9 C 13,4 C 94 % 1015,6 hPa 0,0 l/m 0 min 0 min 0 W/m 3,2 km/h (1 Bft) 95,74 %
27.09.2021 04:12 14,6 C 13,9 C 13,4 C 94 % 1015,5 hPa 0,0 l/m 0 min 0 min 0 W/m 3,2 km/h (1 Bft) 97,87 %
27.09.2021 04:10 14,6 C 13,9 C 13,4 C 94 % 1015,6 hPa 0,0 l/m 0 min 0 min 0 W/m 6,4 km/h (2 Bft) 95,74 %
27.09.2021 04:08 14,6 C 13,9 C 13,4 C 94 % 1015,5 hPa 0,0 l/m 0 min 0 min 0 W/m 3,2 km/h (1 Bft) 95,65 %
27.09.2021 04:06 14,6 C 13,9 C 13,4 C 94 % 1015,6 hPa 0,0 l/m 0 min 0 min 0 W/m 6,4 km/h (2 Bft) 93,62 %
27.09.2021 04:04 14,6 C 13,9 C 13,4 C 94 % 1015,6 hPa 0,0 l/m 0 min 0 min 0 W/m 6,4 km/h (2 Bft) 93,62 %
27.09.2021 04:02 14,7 C 13,9 C 13,4 C 94 % 1015,6 hPa 0,0 l/m 0 min 0 min 0 W/m 6,4 km/h (2 Bft) 100,00 %
27.09.2021 04:00 14,7 C 13,9 C 13,4 C 94 % 1015,6 hPa 0,0 l/m 0 min 0 min 0 W/m 6,4 km/h (2 Bft) 95,74 %
27.09.2021 03:58 14,7 C 13,9 C 13,4 C 94 % 1015,6 hPa 0,0 l/m 0 min 0 min 0 W/m 12,9 km/h (3 Bft) 95,74 %
27.09.2021 03:56 14,8 C 13,9 C 13,4 C 94 % 1015,6 hPa 0,0 l/m 0 min 0 min 0 W/m 6,4 km/h (2 Bft) 95,65 %
27.09.2021 03:54 14,8 C 13,9 C 13,4 C 94 % 1015,6 hPa 0,0 l/m 0 min 0 min 0 W/m 6,4 km/h (2 Bft) 97,87 %
27.09.2021 03:52 14,8 C 13,9 C 13,4 C 94 % 1015,6 hPa 0,0 l/m 0 min 0 min 0 W/m 6,4 km/h (2 Bft) 95,74 %
27.09.2021 03:50 14,8 C 13,9 C 13,4 C 94 % 1015,6 hPa 0,0 l/m 0 min 0 min 0 W/m 3,2 km/h (1 Bft) 95,74 %
27.09.2021 03:48 14,8 C 13,9 C 13,4 C 94 % 1015,6 hPa 0,0 l/m 0 min 0 min 0 W/m 3,2 km/h (1 Bft) 97,87 %
27.09.2021 03:46 14,9 C 13,9 C 13,4 C 94 % 1015,6 hPa 0,0 l/m 0 min 0 min 0 W/m 3,2 km/h (1 Bft) 97,87 %
27.09.2021 03:44 14,9 C 13,9 C 13,4 C 94 % 1015,7 hPa 0,0 l/m 0 min 0 min 0 W/m 3,2 km/h (1 Bft) 97,83 %
27.09.2021 03:42 14,9 C 13,9 C 13,4 C 94 % 1015,7 hPa 0,0 l/m 0 min 0 min 0 W/m 3,2 km/h (1 Bft) 97,87 %
27.09.2021 03:40 14,9 C 13,9 C 13,4 C 94 % 1015,7 hPa 0,0 l/m 0 min 0 min 0 W/m 6,4 km/h (2 Bft) 100,00 %
27.09.2021 03:38 15,0 C 13,9 C 13,4 C 94 % 1015,7 hPa 0,0 l/m 0 min 0 min 0 W/m 6,4 km/h (2 Bft) 100,00 %
27.09.2021 03:36 15,0 C 13,9 C 13,4 C 94 % 1015,7 hPa 0,0 l/m 0 min 0 min 0 W/m 6,4 km/h (2 Bft) 100,00 %
27.09.2021 03:34 15,0 C 13,9 C 13,4 C 94 % 1015,7 hPa 0,0 l/m 0 min 0 min 0 W/m 6,4 km/h (2 Bft) 100,00 %
27.09.2021 03:32 15,0 C 13,9 C 13,4 C 94 % 1015,8 hPa 0,0 l/m 0 min 0 min 0 W/m 9,7 km/h (2 Bft) 100,00 %
27.09.2021 03:30 15,0 C 13,9 C 13,4 C 94 % 1015,7 hPa 0,0 l/m 0 min 0 min 0 W/m 3,2 km/h (1 Bft) 97,87 %
27.09.2021 03:28 15,0 C 13,9 C 13,4 C 94 % 1015,7 hPa 0,0 l/m 0 min 0 min 0 W/m 3,2 km/h (1 Bft) 95,74 %
27.09.2021 03:26 15,1 C 13,9 C 13,4 C 94 % 1015,8 hPa 0,0 l/m 0 min 0 min 0 W/m 6,4 km/h (2 Bft) 100,00 %
27.09.2021 03:24 15,1 C 14,4 C 13,9 C 94 % 1015,7 hPa 0,0 l/m 0 min 0 min 0 W/m 3,2 km/h (1 Bft) 100,00 %
27.09.2021 03:22 15,1 C 14,4 C 13,9 C 94 % 1015,7 hPa 0,0 l/m 0 min 0 min 0 W/m 3,2 km/h (1 Bft) 100,00 %
27.09.2021 03:20 15,1 C 14,4 C 13,9 C 94 % 1015,8 hPa 0,0 l/m 0 min 0 min 0 W/m 3,2 km/h (1 Bft) 100,00 %
27.09.2021 03:18 15,1 C 14,4 C 13,9 C 94 % 1015,8 hPa 0,0 l/m 0 min 0 min 0 W/m 3,2 km/h (1 Bft) 100,00 %
27.09.2021 03:16 15,1 C 14,4 C 13,9 C 94 % 1015,8 hPa 0,0 l/m 0 min 0 min 0 W/m 6,4 km/h (2 Bft) 100,00 %
27.09.2021 03:14 15,2 C 14,4 C 13,9 C 94 % 1015,8 hPa 0,0 l/m 0 min 0 min 0 W/m 6,4 km/h (2 Bft) 100,00 %
27.09.2021 03:12 15,2 C 14,4 C 13,9 C 94 % 1015,9 hPa 0,0 l/m 0 min 0 min 0 W/m 6,4 km/h (2 Bft) 100,00 %
27.09.2021 03:10 15,2 C 14,4 C 13,9 C 94 % 1015,9 hPa 0,0 l/m 0 min 0 min 0 W/m 3,2 km/h (1 Bft) 100,00 %
27.09.2021 03:08 15,2 C 14,4 C 13,9 C 94 % 1015,9 hPa 0,0 l/m 0 min 0 min 0 W/m 6,4 km/h (2 Bft) 100,00 %
27.09.2021 03:06 15,2 C 14,4 C 13,9 C 94 % 1015,9 hPa 0,0 l/m 0 min 0 min 0 W/m 3,2 km/h (1 Bft) 100,00 %
27.09.2021 03:04 15,2 C 14,4 C 13,9 C 94 % 1015,9 hPa 0,0 l/m 0 min 0 min 0 W/m 6,4 km/h (2 Bft) 100,00 %
27.09.2021 03:02 15,3 C 14,4 C 13,9 C 94 % 1015,9 hPa 0,0 l/m 0 min 0 min 0 W/m 6,4 km/h (2 Bft) 100,00 %
27.09.2021 03:00 15,3 C 14,4 C 13,9 C 94 % 1015,9 hPa 0,0 l/m 0 min 0 min 0 W/m 3,2 km/h (1 Bft) 100,00 %
27.09.2021 02:58 15,3 C 14,4 C 13,9 C 94 % 1016,0 hPa 0,0 l/m 0 min 0 min 0 W/m 3,2 km/h (1 Bft) 97,87 %
27.09.2021 02:56 15,3 C 14,4 C 13,9 C 94 % 1016,0 hPa 0,0 l/m 0 min 0 min 0 W/m 6,4 km/h (2 Bft) 97,83 %
27.09.2021 02:54 15,3 C 14,4 C 13,9 C 93 % 1015,9 hPa 0,0 l/m 0 min 0 min 0 W/m 3,2 km/h (1 Bft) 100,00 %
27.09.2021 02:52 15,3 C 14,4 C 13,9 C 93 % 1015,9 hPa 0,0 l/m 0 min 0 min 0 W/m 3,2 km/h (1 Bft) 100,00 %
27.09.2021 02:50 15,3 C 14,4 C 13,9 C 93 % 1016,0 hPa 0,0 l/m 0 min 0 min 0 W/m 3,2 km/h (1 Bft) 100,00 %
27.09.2021 02:48 15,3 C 14,4 C 13,9 C 93 % 1015,9 hPa 0,0 l/m 0 min 0 min 0 W/m 3,2 km/h (1 Bft) 100,00 %
27.09.2021 02:46 15,3 C 14,4 C 13,9 C 93 % 1015,9 hPa 0,0 l/m 0 min 0 min 0 W/m 3,2 km/h (1 Bft) 100,00 %
27.09.2021 02:44 15,3 C 14,4 C 13,9 C 93 % 1016,0 hPa 0,0 l/m 0 min 0 min 0 W/m 3,2 km/h (1 Bft) 100,00 %
27.09.2021 02:42 15,3 C 14,4 C 13,9 C 93 % 1015,9 hPa 0,0 l/m 0 min 0 min 0 W/m 3,2 km/h (1 Bft) 100,00 %
27.09.2021 02:40 15,3 C 14,4 C 13,9 C 93 % 1016,0 hPa 0,0 l/m 0 min 0 min 0 W/m 3,2 km/h (1 Bft) 100,00 %
27.09.2021 02:38 15,4 C 14,4 C 13,9 C 93 % 1015,9 hPa 0,0 l/m 0 min 0 min 0 W/m 3,2 km/h (1 Bft) 95,74 %
27.09.2021 02:36 15,4 C 14,4 C 13,9 C 93 % 1016,0 hPa 0,0 l/m 0 min 0 min 0 W/m 3,2 km/h (1 Bft) 100,00 %
27.09.2021 02:34 15,4 C 14,4 C 13,9 C 93 % 1016,0 hPa 0,0 l/m 0 min 0 min 0 W/m 3,2 km/h (1 Bft) 100,00 %
27.09.2021 02:32 15,4 C 14,4 C 13,9 C 93 % 1016,0 hPa 0,0 l/m 0 min 0 min 0 W/m 6,4 km/h (2 Bft) 100,00 %
27.09.2021 02:30 15,4 C 14,4 C 13,9 C 93 % 1016,0 hPa 0,0 l/m 0 min 0 min 0 W/m 6,4 km/h (2 Bft) 97,87 %
27.09.2021 02:28 15,4 C 14,4 C 13,9 C 93 % 1016,1 hPa 0,0 l/m 0 min 0 min 0 W/m 6,4 km/h (2 Bft) 97,92 %
27.09.2021 02:26 15,4 C 14,4 C 13,9 C 93 % 1016,0 hPa 0,0 l/m 0 min 0 min 0 W/m 3,2 km/h (1 Bft) 95,74 %
27.09.2021 02:24 15,5 C 14,4 C 13,9 C 93 % 1016,1 hPa 0,0 l/m 0 min 0 min 0 W/m 3,2 km/h (1 Bft) 97,83 %
27.09.2021 02:22 15,5 C 14,4 C 13,9 C 93 % 1016,1 hPa 0,0 l/m 0 min 0 min 0 W/m 6,4 km/h (2 Bft) 95,74 %
27.09.2021 02:20 15,5 C 14,4 C 13,9 C 93 % 1016,0 hPa 0,0 l/m 0 min 0 min 0 W/m 6,4 km/h (2 Bft) 95,74 %
27.09.2021 02:18 15,5 C 14,4 C 13,9 C 93 % 1016,0 hPa 0,0 l/m 0 min 0 min 0 W/m 3,2 km/h (1 Bft) 93,62 %
27.09.2021 02:16 15,5 C 14,4 C 13,9 C 93 % 1016,0 hPa 0,0 l/m 0 min 0 min 0 W/m 3,2 km/h (1 Bft) 95,74 %
27.09.2021 02:14 15,5 C 14,4 C 13,9 C 93 % 1016,0 hPa 0,0 l/m 0 min 0 min 0 W/m 3,2 km/h (1 Bft) 95,74 %
27.09.2021 02:12 15,5 C 14,4 C 13,9 C 93 % 1015,9 hPa 0,0 l/m 0 min 0 min 0 W/m 3,2 km/h (1 Bft) 95,74 %
27.09.2021 02:10 15,5 C 14,4 C 13,9 C 93 % 1015,9 hPa 0,0 l/m 0 min 0 min 0 W/m 3,2 km/h (1 Bft) 91,30 %
27.09.2021 02:08 15,6 C 14,4 C 13,9 C 93 % 1015,9 hPa 0,0 l/m 0 min 0 min 0 W/m 3,2 km/h (1 Bft) 95,74 %
27.09.2021 02:06 15,6 C 14,4 C 13,9 C 93 % 1016,0 hPa 0,0 l/m 0 min 0 min 0 W/m 3,2 km/h (1 Bft) 97,87 %
27.09.2021 02:04 15,6 C 14,4 C 13,9 C 93 % 1016,0 hPa 0,0 l/m 0 min 0 min 0 W/m 6,4 km/h (2 Bft) 95,74 %
27.09.2021 02:02 15,6 C 14,4 C 13,9 C 93 % 1015,9 hPa 0,0 l/m 0 min 0 min 0 W/m 6,4 km/h (2 Bft) 95,74 %
27.09.2021 02:00 15,6 C 14,4 C 13,9 C 93 % 1015,9 hPa 0,0 l/m 0 min 0 min 0 W/m 6,4 km/h (2 Bft) 93,62 %
27.09.2021 01:58 15,6 C 14,4 C 13,9 C 93 % 1015,9 hPa 0,0 l/m 0 min 0 min 0 W/m 6,4 km/h (2 Bft) 95,65 %
27.09.2021 01:56 15,6 C 15,0 C 13,9 C 93 % 1015,9 hPa 0,0 l/m 0 min 0 min 0 W/m 6,4 km/h (2 Bft) 95,74 %
27.09.2021 01:54 15,6 C 15,0 C 13,9 C 93 % 1015,8 hPa 0,0 l/m 0 min 0 min 0 W/m 6,4 km/h (2 Bft) 95,74 %
27.09.2021 01:52 15,6 C 15,0 C 13,9 C 93 % 1015,8 hPa 0,0 l/m 0 min 0 min 0 W/m 6,4 km/h (2 Bft) 95,74 %
27.09.2021 01:50 15,6 C 15,0 C 13,9 C 93 % 1015,8 hPa 0,0 l/m 0 min 0 min 0 W/m 6,4 km/h (2 Bft) 95,74 %
27.09.2021 01:48 15,7 C 15,0 C 13,9 C 93 % 1015,9 hPa 0,0 l/m 0 min 0 min 0 W/m 3,2 km/h (1 Bft) 95,74 %
27.09.2021 01:46 15,7 C 15,0 C 13,9 C 93 % 1015,8 hPa 0,0 l/m 0 min 0 min 0 W/m 6,4 km/h (2 Bft) 97,83 %
27.09.2021 01:44 15,7 C 14,4 C 13,9 C 93 % 1015,8 hPa 0,0 l/m 0 min 0 min 0 W/m 3,2 km/h (1 Bft) 95,74 %
27.09.2021 01:42 15,7 C 14,4 C 13,9 C 92 % 1015,8 hPa 0,0 l/m 0 min 0 min 0 W/m 6,4 km/h (2 Bft) 97,87 %
27.09.2021 01:40 15,7 C 14,4 C 13,9 C 92 % 1015,9 hPa 0,0 l/m 0 min 0 min 0 W/m 3,2 km/h (1 Bft) 93,62 %
27.09.2021 01:38 15,7 C 14,4 C 13,9 C 92 % 1015,9 hPa 0,0 l/m 0 min 0 min 0 W/m 3,2 km/h (1 Bft) 97,87 %
27.09.2021 01:36 15,8 C 14,4 C 13,9 C 92 % 1015,9 hPa 0,0 l/m 0 min 0 min 0 W/m 3,2 km/h (1 Bft) 97,83 %
27.09.2021 01:34 15,8 C 14,4 C 13,9 C 92 % 1015,8 hPa 0,0 l/m 0 min 0 min 0 W/m 3,2 km/h (1 Bft) 97,87 %
27.09.2021 01:32 15,8 C 14,4 C 13,9 C 92 % 1015,9 hPa 0,0 l/m 0 min 0 min 0 W/m 3,2 km/h (1 Bft) 97,92 %
27.09.2021 01:30 15,8 C 14,4 C 13,9 C 92 % 1015,8 hPa 0,0 l/m 0 min 0 min 0 W/m 3,2 km/h (1 Bft) 97,87 %
27.09.2021 01:28 15,8 C 14,4 C 13,9 C 92 % 1015,8 hPa 0,0 l/m 0 min 0 min 0 W/m 3,2 km/h (1 Bft) 97,87 %
27.09.2021 01:26 15,9 C 14,4 C 13,9 C 92 % 1015,8 hPa 0,0 l/m 0 min 0 min 0 W/m 3,2 km/h (1 Bft) 97,87 %
27.09.2021 01:24 15,9 C 14,4 C 13,9 C 92 % 1015,9 hPa 0,0 l/m 0 min 0 min 0 W/m 3,2 km/h (1 Bft) 97,83 %
27.09.2021 01:22 15,9 C 15,0 C 13,9 C 92 % 1015,8 hPa 0,0 l/m 0 min 0 min 0 W/m 3,2 km/h (1 Bft) 95,74 %
27.09.2021 01:20 15,9 C 15,0 C 13,9 C 92 % 1015,9 hPa 0,0 l/m 0 min 0 min 0 W/m 3,2 km/h (1 Bft) 97,87 %
27.09.2021 01:18 15,9 C 15,0 C 13,9 C 92 % 1015,9 hPa 0,0 l/m 0 min 0 min 0 W/m 3,2 km/h (1 Bft) 97,87 %
27.09.2021 01:16 16,0 C 15,0 C 13,9 C 92 % 1015,9 hPa 0,0 l/m 0 min 0 min 0 W/m 3,2 km/h (1 Bft) 97,87 %
27.09.2021 01:14 16,0 C 15,0 C 14,5 C 92 % 1015,9 hPa 0,0 l/m 0 min 0 min 0 W/m 0,0 km/h (0 Bft) 97,87 %
27.09.2021 01:12 16,0 C 15,0 C 14,5 C 92 % 1015,9 hPa 0,0 l/m 0 min 0 min 0 W/m 3,2 km/h (1 Bft) 97,83 %
27.09.2021 01:10 16,0 C 15,0 C 14,5 C 92 % 1015,9 hPa 0,0 l/m 0 min 0 min 0 W/m 3,2 km/h (1 Bft) 97,87 %
27.09.2021 01:08 16,0 C 15,0 C 14,5 C 92 % 1015,9 hPa 0,0 l/m 0 min 0 min 0 W/m 3,2 km/h (1 Bft) 97,87 %
27.09.2021 01:06 16,0 C 15,0 C 14,5 C 92 % 1015,9 hPa 0,0 l/m 0 min 0 min 0 W/m 6,4 km/h (2 Bft) 95,74 %
27.09.2021 01:04 16,1 C 15,0 C 14,5 C 92 % 1015,9 hPa 0,0 l/m 0 min 0 min 0 W/m 3,2 km/h (1 Bft) 93,62 %
27.09.2021 01:02 16,1 C 15,0 C 14,5 C 92 % 1015,9 hPa 0,0 l/m 0 min 0 min 0 W/m 3,2 km/h (1 Bft) 95,83 %
27.09.2021 01:00 16,1 C 15,0 C 14,5 C 92 % 1015,9 hPa 0,0 l/m 0 min 0 min 0 W/m 3,2 km/h (1 Bft) 95,65 %
27.09.2021 00:58 16,2 C 15,0 C 14,5 C 92 % 1015,9 hPa 0,0 l/m 0 min 0 min 0 W/m 3,2 km/h (1 Bft) 97,87 %
27.09.2021 00:56 16,2 C 15,0 C 14,5 C 92 % 1016,0 hPa 0,0 l/m 0 min 0 min 0 W/m 3,2 km/h (1 Bft) 95,74 %
27.09.2021 00:54 16,3 C 15,0 C 14,5 C 92 % 1016,0 hPa 0,0 l/m 0 min 0 min 0 W/m 3,2 km/h (1 Bft) 100,00 %
27.09.2021 00:52 16,3 C 15,0 C 14,5 C 92 % 1016,0 hPa 0,0 l/m 0 min 0 min 0 W/m 3,2 km/h (1 Bft) 100,00 %
27.09.2021 00:50 16,3 C 15,0 C 14,5 C 92 % 1016,0 hPa 0,0 l/m 0 min 0 min 0 W/m 3,2 km/h (1 Bft) 100,00 %
27.09.2021 00:48 16,3 C 15,0 C 14,5 C 92 % 1016,0 hPa 0,0 l/m 0 min 0 min 0 W/m 3,2 km/h (1 Bft) 100,00 %
27.09.2021 00:46 16,4 C 15,0 C 14,5 C 92 % 1016,1 hPa 0,0 l/m 0 min 0 min 0 W/m 3,2 km/h (1 Bft) 97,87 %
27.09.2021 00:44 16,4 C 15,0 C 14,5 C 92 % 1016,1 hPa 0,0 l/m 0 min 0 min 0 W/m 3,2 km/h (1 Bft) 100,00 %
27.09.2021 00:42 16,4 C 15,0 C 14,5 C 92 % 1016,1 hPa 0,0 l/m 0 min 0 min 0 W/m 3,2 km/h (1 Bft) 100,00 %
27.09.2021 00:40 16,5 C 15,0 C 14,5 C 92 % 1016,1 hPa 0,0 l/m 0 min 0 min 0 W/m 6,4 km/h (2 Bft) 100,00 %
27.09.2021 00:38 16,5 C 15,0 C 14,5 C 92 % 1016,1 hPa 0,0 l/m 0 min 0 min 0 W/m 3,2 km/h (1 Bft) 97,87 %
27.09.2021 00:36 16,5 C 15,0 C 14,5 C 92 % 1016,1 hPa 0,0 l/m 0 min 0 min 0 W/m 3,2 km/h (1 Bft) 100,00 %
27.09.2021 00:34 16,6 C 15,6 C 14,5 C 92 % 1016,0 hPa 0,0 l/m 0 min 0 min 0 W/m 6,4 km/h (2 Bft) 100,00 %
27.09.2021 00:32 16,6 C 15,6 C 14,5 C 92 % 1016,0 hPa 0,0 l/m 0 min 0 min 0 W/m 3,2 km/h (1 Bft) 100,00 %
27.09.2021 00:30 16,7 C 15,6 C 14,5 C 92 % 1016,0 hPa 0,0 l/m 0 min 0 min 0 W/m 3,2 km/h (1 Bft) 97,87 %
27.09.2021 00:28 16,8 C 15,6 C 14,5 C 92 % 1016,1 hPa 0,0 l/m 0 min 0 min 0 W/m 3,2 km/h (1 Bft) 95,74 %
27.09.2021 00:26 16,8 C 15,6 C 14,5 C 92 % 1016,0 hPa 0,0 l/m 0 min 0 min 0 W/m 3,2 km/h (1 Bft) 97,87 %
27.09.2021 00:24 16,8 C 15,6 C 14,5 C 92 % 1016,0 hPa 0,0 l/m 0 min 0 min 0 W/m 3,2 km/h (1 Bft) 97,83 %
27.09.2021 00:22 16,9 C 15,6 C 15,0 C 92 % 1016,1 hPa 0,0 l/m 0 min 0 min 0 W/m 3,2 km/h (1 Bft) 97,87 %
27.09.2021 00:20 16,9 C 15,6 C 15,0 C 92 % 1016,1 hPa 0,0 l/m 0 min 0 min 0 W/m 3,2 km/h (1 Bft) 97,87 %
27.09.2021 00:18 16,9 C 15,6 C 15,0 C 92 % 1016,1 hPa 0,0 l/m 0 min 0 min 0 W/m 3,2 km/h (1 Bft) 97,87 %
27.09.2021 00:16 17,0 C 15,6 C 15,0 C 92 % 1016,1 hPa 0,0 l/m 0 min 0 min 0 W/m 3,2 km/h (1 Bft) 97,87 %
27.09.2021 00:14 17,0 C 15,6 C 15,0 C 92 % 1016,1 hPa 0,0 l/m 0 min 0 min 0 W/m 3,2 km/h (1 Bft) 97,83 %
27.09.2021 00:12 17,0 C 15,6 C 15,0 C 92 % 1016,2 hPa 0,0 l/m 0 min 0 min 0 W/m 0,0 km/h (0 Bft) 97,87 %
27.09.2021 00:10 17,0 C 16,1 C 15,0 C 92 % 1016,2 hPa 0,0 l/m 0 min 0 min 0 W/m 3,2 km/h (1 Bft) 95,74 %
27.09.2021 00:08 17,1 C 16,1 C 15,0 C 92 % 1016,2 hPa 0,0 l/m 0 min 0 min 0 W/m 3,2 km/h (1 Bft) 97,89 %
27.09.2021 00:04 17,1 C 16,1 C 15,0 C 92 % 1016,2 hPa 0,0 l/m 0 min 0 min 0 W/m 6,4 km/h (2 Bft) 97,87 %
27.09.2021 00:02 17,1 C 16,1 C 15,0 C 92 % 1016,2 hPa 0,0 l/m 0 min 0 min 0 W/m 6,4 km/h (2 Bft) 95,00 %
27.09.2021 00:00 17,2 C 16,1 C 15,0 C 92 % 1016,2 hPa 0,0 l/m 0 min 0 min 0 W/m 3,2 km/h (1 Bft) 97,87 %
26.09.2021 23:58 17,3 C 16,1 C 15,0 C 92 % 1016,2 hPa 0,0 l/m 0 min 0 min 0 W/m 3,2 km/h (1 Bft) 100,00 %
26.09.2021 23:56 17,3 C 16,1 C 15,0 C 92 % 1016,1 hPa 0,0 l/m 0 min 0 min 0 W/m 3,2 km/h (1 Bft) 97,87 %
26.09.2021 23:54 17,3 C 16,1 C 15,0 C 92 % 1016,1 hPa 0,0 l/m 0 min 0 min 0 W/m 3,2 km/h (1 Bft) 97,87 %
26.09.2021 23:52 17,3 C 16,1 C 15,0 C 92 % 1016,1 hPa 0,0 l/m 0 min 0 min 0 W/m 3,2 km/h (1 Bft) 97,87 %
26.09.2021 23:50 17,3 C 16,1 C 15,0 C 92 % 1016,1 hPa 0,0 l/m 0 min 0 min 0 W/m 3,2 km/h (1 Bft) 97,83 %
26.09.2021 23:48 17,4 C 16,1 C 15,0 C 92 % 1016,1 hPa 0,0 l/m 0 min 0 min 0 W/m 3,2 km/h (1 Bft) 97,87 %
26.09.2021 23:46 17,4 C 16,1 C 15,0 C 92 % 1016,1 hPa 0,0 l/m 0 min 0 min 0 W/m 3,2 km/h (1 Bft) 97,87 %
26.09.2021 23:44 17,4 C 16,1 C 15,0 C 92 % 1016,1 hPa 0,0 l/m 0 min 0 min 0 W/m 3,2 km/h (1 Bft) 97,87 %
26.09.2021 23:42 17,4 C 16,1 C 15,0 C 91 % 1016,1 hPa 0,0 l/m 0 min 0 min 0 W/m 3,2 km/h (1 Bft) 97,87 %
26.09.2021 23:40 17,5 C 16,1 C 15,0 C 91 % 1016,1 hPa 0,0 l/m 0 min 0 min 0 W/m 3,2 km/h (1 Bft) 97,87 %
26.09.2021 23:38 17,5 C 16,1 C 15,0 C 91 % 1016,2 hPa 0,0 l/m 0 min 0 min 0 W/m 3,2 km/h (1 Bft) 97,83 %
26.09.2021 23:36 17,5 C 16,1 C 15,0 C 91 % 1016,1 hPa 0,0 l/m 0 min 0 min 0 W/m 0,0 km/h (0 Bft) 95,74 %
26.09.2021 23:34 17,5 C 16,1 C 15,0 C 91 % 1016,1 hPa 0,0 l/m 0 min 0 min 0 W/m 0,0 km/h (0 Bft) 93,62 %
26.09.2021 23:32 17,5 C 16,1 C 15,0 C 91 % 1016,2 hPa 0,0 l/m 0 min 0 min 0 W/m 0,0 km/h (0 Bft) 93,62 %
26.09.2021 23:30 17,6 C 16,1 C 15,0 C 91 % 1016,1 hPa 0,0 l/m 0 min 0 min 0 W/m 3,2 km/h (1 Bft) 97,87 %
26.09.2021 23:28 17,6 C 16,1 C 15,0 C 91 % 1016,2 hPa 0,0 l/m 0 min 0 min 0 W/m 3,2 km/h (1 Bft) 93,62 %
26.09.2021 23:26 17,6 C 16,1 C 15,0 C 91 % 1016,2 hPa 0,0 l/m 0 min 0 min 0 W/m 3,2 km/h (1 Bft) 97,83 %
26.09.2021 23:24 17,6 C 16,1 C 15,0 C 91 % 1016,1 hPa 0,0 l/m 0 min 0 min 0 W/m 3,2 km/h (1 Bft) 97,87 %
26.09.2021 23:22 17,6 C 16,1 C 15,0 C 91 % 1016,1 hPa 0,0 l/m 0 min 0 min 0 W/m 3,2 km/h (1 Bft) 97,67 %
26.09.2021 23:20 17,7 C 16,7 C 15,0 C 91 % 1016,1 hPa 0,0 l/m 0 min 0 min 0 W/m 3,2 km/h (1 Bft) 97,87 %
26.09.2021 23:18 17,7 C 16,7 C 15,0 C 91 % 1016,1 hPa 0,0 l/m 0 min 0 min 0 W/m 3,2 km/h (1 Bft) 97,96 %
26.09.2021 23:16 17,7 C 16,7 C 15,0 C 91 % 1016,2 hPa 0,0 l/m 0 min 0 min 0 W/m 3,2 km/h (1 Bft) 97,87 %
26.09.2021 23:14 17,8 C 16,7 C 15,6 C 91 % 1016,2 hPa 0,0 l/m 0 min 0 min 0 W/m 3,2 km/h (1 Bft) 97,83 %
26.09.2021 23:12 17,8 C 16,7 C 15,6 C 91 % 1016,2 hPa 0,0 l/m 0 min 0 min 0 W/m 3,2 km/h (1 Bft) 97,87 %
26.09.2021 23:10 17,8 C 16,7 C 15,6 C 91 % 1016,2 hPa 0,0 l/m 0 min 0 min 0 W/m 0,0 km/h (0 Bft) 100,00 %
26.09.2021 23:08 17,8 C 16,7 C 15,6 C 90 % 1016,2 hPa 0,0 l/m 0 min 0 min 0 W/m 3,2 km/h (1 Bft) 100,00 %
26.09.2021 23:06 17,8 C 16,7 C 15,6 C 90 % 1016,2 hPa 0,0 l/m 0 min 0 min 0 W/m 3,2 km/h (1 Bft) 100,00 %
26.09.2021 23:04 17,9 C 16,7 C 15,6 C 90 % 1016,2 hPa 0,0 l/m 0 min 0 min 0 W/m 3,2 km/h (1 Bft) 100,00 %
26.09.2021 23:02 17,9 C 16,7 C 15,6 C 90 % 1016,2 hPa 0,0 l/m 0 min 0 min 0 W/m 3,2 km/h (1 Bft) 95,65 %
26.09.2021 23:00 17,9 C 16,7 C 15,6 C 90 % 1016,2 hPa 0,0 l/m 0 min 0 min 0 W/m 3,2 km/h (1 Bft) 100,00 %
_ Min-Zeit 22:08 22:12 18:16 14:34 15:02 - - - - 23:10 18:10
Minimum _ 13,6 C 12,2 C 11,7 C 72 % 1013,3 hPa - - - - 0,0 km/h (0 Bft) 89,36 %
_ Max-Zeit 13:54 13:40 13:44 06:24 22:12 18:12 09:38 18:08 13:46 18:10 23:00
Maximum _ 21,6 C 22,2 C 20,0 C 96 % 1019,9 hPa 1,8 l/m 2 min 4 min 498 W/m 48,3 km/h
SO (6 Bft)
100,00 %
Durchschnitt _ 16,9 C 16,2 C 15,2 C 90 % 1015,4 hPa #7,2 l/m #1:08 h #2:14 h 134 W/m 9,5 km/h (2 Bft) 97,77 %
© 2021 W. Hausmann